IBE170 SUMU-LEMD

Flight info

Callsign IBE170
Flight time 11h 23m
Altitude 35000
Route TOSIB UM661 VUNUX/N0476F370 UM661 ERETU/N0470F390 DCT GUNET N857 BIPET/N0463F400 DCT ODEGI DCT GDV N858 VASTO UN858 AKUDA/N0404F240 UN858 PESAS N858 PARKA Z165
Aircraft A332/H-SDE3GHIJ2J3J5M1RVWXY/LB2D1

Departure

Time 2026-04-07 11:09
Airport Carrasco General Cesáreo L. Berisso International Airport (SUMU)

Arrival

Time 2026-04-07 22:32
Airport Adolfo Suárez Madrid–Barajas Airport (LEMD)
Time Latitude Longitude Altitude Speed Heading
2026-04-07 09:31 -34.83613 -56.01807 91 ft 0 kts 144°
2026-04-07 10:56 -34.83613 -56.01808 90 ft 1 kts 144°
2026-04-07 10:56 -34.83594 -56.01825 91 ft 4 kts 144°
2026-04-07 10:56 -34.83574 -56.01842 91 ft 4 kts 148°
2026-04-07 10:57 -34.83552 -56.01848 88 ft 4 kts 207°
2026-04-07 10:57 -34.83533 -56.01829 89 ft 3 kts 233°
2026-04-07 10:57 -34.83529 -56.01822 90 ft 0 kts 233°
2026-04-07 11:00 -34.83533 -56.01828 86 ft 5 kts 233°
2026-04-07 11:00 -34.83573 -56.01895 88 ft 15 kts 233°
2026-04-07 11:01 -34.83635 -56.01995 91 ft 14 kts 233°
2026-04-07 11:01 -34.83694 -56.02091 88 ft 14 kts 233°
2026-04-07 11:01 -34.83750 -56.02183 90 ft 13 kts 233°
2026-04-07 11:01 -34.83823 -56.02238 89 ft 12 kts 189°
2026-04-07 11:02 -34.83905 -56.02240 89 ft 12 kts 179°
2026-04-07 11:02 -34.83982 -56.02243 88 ft 11 kts 190°
2026-04-07 11:02 -34.84039 -56.02286 90 ft 10 kts 231°
2026-04-07 11:02 -34.84072 -56.02350 90 ft 9 kts 257°
2026-04-07 11:03 -34.84075 -56.02435 88 ft 10 kts 277°
2026-04-07 11:03 -34.84046 -56.02510 87 ft 10 kts 301°
2026-04-07 11:03 -34.84016 -56.02579 87 ft 9 kts 290°
2026-04-07 11:03 -34.83974 -56.02621 88 ft 8 kts 346°
2026-04-07 11:04 -34.83950 -56.02653 90 ft 5 kts 264°
2026-04-07 11:04 -34.83979 -56.02726 90 ft 13 kts 237°
2026-04-07 11:04 -34.84011 -56.02824 88 ft 12 kts 264°
2026-04-07 11:04 -34.84012 -56.02925 86 ft 12 kts 270°
2026-04-07 11:05 -34.84012 -56.03022 86 ft 11 kts 270°
2026-04-07 11:05 -34.84026 -56.03113 90 ft 11 kts 249°
2026-04-07 11:05 -34.84068 -56.03207 88 ft 17 kts 242°
2026-04-07 11:05 -34.84127 -56.03339 88 ft 18 kts 242°
2026-04-07 11:06 -34.84185 -56.03467 90 ft 17 kts 240°
2026-04-07 11:06 -34.84237 -56.03591 90 ft 16 kts 246°
2026-04-07 11:06 -34.84233 -56.03718 86 ft 15 kts 269°
2026-04-07 11:06 -34.84283 -56.03814 90 ft 13 kts 230°
2026-04-07 11:07 -34.84343 -56.03895 87 ft 12 kts 210°
2026-04-07 11:07 -34.84401 -56.03930 88 ft 2 kts 250°
2026-04-07 11:07 -34.84394 -56.03938 90 ft 1 kts 315°
2026-04-07 11:07 -34.84362 -56.03933 89 ft 7 kts 33°
2026-04-07 11:08 -34.84276 -56.03809 89 ft 43 kts 52°
2026-04-07 11:08 -34.83990 -56.03332 90 ft 96 kts 53°
2026-04-07 11:08 -34.83496 -56.02521 91 ft 141 kts 54°
2026-04-07 11:08 -34.82875 -56.01441 319 ft 159 kts 57°
2026-04-07 11:09 -34.82244 -56.00348 930 ft 156 kts 54°
2026-04-07 11:09 -34.81585 -55.99316 1631 ft 151 kts 51°
2026-04-07 11:09 -34.80916 -55.98387 2147 ft 146 kts 48°
2026-04-07 11:09 -34.80239 -55.97418 2320 ft 155 kts 50°
2026-04-07 11:10 -34.79527 -55.96374 2547 ft 165 kts 49°
2026-04-07 11:10 -34.78779 -55.95283 2744 ft 172 kts 50°
2026-04-07 11:10 -34.77991 -55.94125 2886 ft 185 kts 50°
2026-04-07 11:10 -34.77138 -55.92855 2998 ft 203 kts 50°
2026-04-07 11:11 -34.76211 -55.91482 3199 ft 217 kts 49°
2026-04-07 11:11 -34.75207 -55.90045 3527 ft 226 kts 48°
2026-04-07 11:11 -34.74168 -55.88594 3969 ft 233 kts 48°
2026-04-07 11:11 -34.73079 -55.87072 4205 ft 243 kts 49°
2026-04-07 11:12 -34.71979 -55.85522 4558 ft 246 kts 49°
2026-04-07 11:12 -34.70851 -55.83930 4929 ft 250 kts 49°
2026-04-07 11:12 -34.69699 -55.82296 5331 ft 253 kts 49°
2026-04-07 11:12 -34.68555 -55.80662 5755 ft 253 kts 49°
2026-04-07 11:13 -34.67405 -55.79007 6093 ft 259 kts 49°
2026-04-07 11:13 -34.66240 -55.77336 6397 ft 266 kts 48°
2026-04-07 11:13 -34.65042 -55.75627 6842 ft 266 kts 49°
2026-04-07 11:13 -34.63838 -55.73910 7247 ft 268 kts 48°
2026-04-07 11:14 -34.62622 -55.72179 7661 ft 270 kts 48°
2026-04-07 11:14 -34.61400 -55.70437 8083 ft 272 kts 49°
2026-04-07 11:14 -34.60166 -55.68677 8519 ft 274 kts 47°
2026-04-07 11:14 -34.58925 -55.66920 8980 ft 275 kts 48°
2026-04-07 11:15 -34.57675 -55.65140 9368 ft 278 kts 47°
2026-04-07 11:15 -34.56416 -55.63336 9727 ft 282 kts 48°
2026-04-07 11:15 -34.55136 -55.61508 10093 ft 285 kts 48°
2026-04-07 11:15 -34.53833 -55.59650 10328 ft 294 kts 48°
2026-04-07 11:16 -34.52480 -55.57727 10491 ft 305 kts 48°
2026-04-07 11:16 -34.51081 -55.55741 10662 ft 315 kts 48°
2026-04-07 11:16 -34.49638 -55.53693 10824 ft 324 kts 48°
2026-04-07 11:16 -34.48150 -55.51582 11004 ft 333 kts 48°
2026-04-07 11:17 -34.46626 -55.49419 11166 ft 342 kts 48°
2026-04-07 11:17 -34.45061 -55.47199 11323 ft 350 kts 48°
2026-04-07 11:17 -34.43460 -55.44931 11470 ft 358 kts 48°
2026-04-07 11:17 -34.41827 -55.42617 11658 ft 364 kts 48°
2026-04-07 11:18 -34.40173 -55.40275 11943 ft 367 kts 48°
2026-04-07 11:18 -34.38513 -55.37926 12286 ft 368 kts 48°
2026-04-07 11:18 -34.36845 -55.35566 12535 ft 371 kts 48°
2026-04-07 11:18 -34.35165 -55.33190 12872 ft 372 kts 48°
2026-04-07 11:19 -34.33486 -55.30805 13203 ft 373 kts 49°
2026-04-07 11:19 -34.31801 -55.28403 13464 ft 376 kts 48°
2026-04-07 11:19 -34.30111 -55.25992 13820 ft 375 kts 49°
2026-04-07 11:19 -34.28448 -55.23619 14111 ft 376 kts 49°
2026-04-07 11:20 -34.26721 -55.21158 14297 ft 380 kts 49°
2026-04-07 11:20 -34.25036 -55.18760 14592 ft 379 kts 48°
2026-04-07 11:20 -34.23321 -55.16324 14787 ft 383 kts 48°
2026-04-07 11:20 -34.21585 -55.13858 14996 ft 385 kts 47°
2026-04-07 11:21 -34.19850 -55.11394 15277 ft 386 kts 47°
2026-04-07 11:21 -34.18100 -55.08914 15427 ft 390 kts 47°
2026-04-07 11:21 -34.16337 -55.06415 15689 ft 391 kts 47°
2026-04-07 11:21 -34.14574 -55.03918 15933 ft 392 kts 48°
2026-04-07 11:22 -34.12795 -55.01400 16112 ft 395 kts 47°
2026-04-07 11:22 -34.11007 -54.98871 16351 ft 397 kts 47°
2026-04-07 11:22 -34.09210 -54.96332 16542 ft 400 kts 47°
2026-04-07 11:22 -34.07390 -54.93766 16612 ft 405 kts 47°
2026-04-07 11:23 -34.05555 -54.91178 16846 ft 406 kts 47°
2026-04-07 11:23 -34.03718 -54.88585 17080 ft 408 kts 47°
2026-04-07 11:23 -34.01872 -54.85983 17277 ft 409 kts 46°
2026-04-07 11:23 -34.00019 -54.83371 17491 ft 410 kts 46°
2026-04-07 11:24 -33.98160 -54.80755 17695 ft 412 kts 46°
2026-04-07 11:24 -33.96294 -54.78131 17896 ft 413 kts 46°
2026-04-07 11:24 -33.94419 -54.75496 18083 ft 415 kts 46°
2026-04-07 11:24 -33.92536 -54.72852 18233 ft 418 kts 46°
2026-04-07 11:25 -33.88737 -54.67524 18564 ft 420 kts 46°
2026-04-07 11:25 -33.86830 -54.64852 18724 ft 422 kts 46°
2026-04-07 11:25 -33.84917 -54.62174 18901 ft 422 kts 46°
2026-04-07 11:26 -33.83002 -54.59494 19062 ft 423 kts 46°
2026-04-07 11:26 -33.81080 -54.56807 19214 ft 424 kts 46°
2026-04-07 11:26 -33.79151 -54.54112 19366 ft 425 kts 46°
2026-04-07 11:26 -33.77218 -54.51415 19515 ft 426 kts 46°
2026-04-07 11:27 -33.75283 -54.48716 19622 ft 427 kts 45°
2026-04-07 11:27 -33.73336 -54.46005 19718 ft 430 kts 45°
2026-04-07 11:27 -33.71384 -54.43286 19854 ft 430 kts 45°
2026-04-07 11:27 -33.69428 -54.40564 19994 ft 431 kts 45°
2026-04-07 11:28 -33.67469 -54.37840 20123 ft 431 kts 45°
2026-04-07 11:28 -33.65532 -54.35148 20257 ft 432 kts 45°
2026-04-07 11:28 -33.63567 -54.32420 20418 ft 433 kts 45°
2026-04-07 11:28 -33.61599 -54.29690 20524 ft 434 kts 45°
2026-04-07 11:29 -33.59620 -54.26947 20662 ft 435 kts 45°
2026-04-07 11:29 -33.57641 -54.24205 20780 ft 436 kts 45°
2026-04-07 11:29 -33.55650 -54.21451 20854 ft 438 kts 45°
2026-04-07 11:29 -33.53653 -54.18690 20994 ft 439 kts 45°
2026-04-07 11:30 -33.51653 -54.15926 21119 ft 439 kts 45°
2026-04-07 11:30 -33.50300 -54.14057 21213 ft 440 kts 45°
2026-04-07 11:30 -33.48290 -54.11282 21332 ft 441 kts 45°
2026-04-07 11:30 -33.46277 -54.08506 21453 ft 442 kts 45°
2026-04-07 11:31 -33.44285 -54.05761 21570 ft 443 kts 45°
2026-04-07 11:31 -33.42262 -54.02975 21684 ft 444 kts 45°
2026-04-07 11:31 -33.40235 -54.00186 21801 ft 445 kts 45°
2026-04-07 11:31 -33.38203 -53.97392 21891 ft 446 kts 45°
2026-04-07 11:32 -33.36162 -53.94590 22003 ft 447 kts 45°
2026-04-07 11:32 -33.34118 -53.91783 22126 ft 448 kts 45°
2026-04-07 11:32 -33.32056 -53.88954 22239 ft 448 kts 45°
2026-04-07 11:32 -33.30004 -53.86143 22351 ft 449 kts 44°
2026-04-07 11:33 -33.27948 -53.83326 22461 ft 450 kts 44°
2026-04-07 11:33 -33.25886 -53.80504 22565 ft 451 kts 44°
2026-04-07 11:33 -33.23821 -53.77681 22658 ft 452 kts 44°
2026-04-07 11:33 -33.21753 -53.74856 22783 ft 452 kts 44°
2026-04-07 11:34 -33.19707 -53.72063 22856 ft 454 kts 44°
2026-04-07 11:34 -33.17624 -53.69221 22939 ft 455 kts 44°
2026-04-07 11:34 -33.15536 -53.66376 23053 ft 456 kts 44°
2026-04-07 11:34 -33.13446 -53.63528 23172 ft 457 kts 44°
2026-04-07 11:35 -33.11349 -53.60674 23272 ft 457 kts 44°
2026-04-07 11:35 -33.09251 -53.57821 23362 ft 458 kts 44°
2026-04-07 11:35 -33.07144 -53.54959 23501 ft 460 kts 44°
2026-04-07 11:35 -33.05029 -53.52087 23699 ft 461 kts 44°
2026-04-07 11:36 -33.02909 -53.49212 23872 ft 463 kts 44°
2026-04-07 11:36 -33.00780 -53.46327 24025 ft 464 kts 44°
2026-04-07 11:36 -32.98646 -53.43435 24205 ft 465 kts 44°
2026-04-07 11:36 -32.96506 -53.40540 24380 ft 467 kts 44°
2026-04-07 11:37 -32.94358 -53.37635 24545 ft 468 kts 44°
2026-04-07 11:37 -32.92203 -53.34723 24715 ft 469 kts 44°
2026-04-07 11:37 -32.90039 -53.31801 24890 ft 471 kts 44°
2026-04-07 11:37 -32.87872 -53.28878 25054 ft 472 kts 44°
2026-04-07 11:38 -32.85695 -53.25944 25217 ft 474 kts 44°
2026-04-07 11:38 -32.83508 -53.22997 25367 ft 476 kts 44°
2026-04-07 11:38 -32.81314 -53.20045 25521 ft 477 kts 44°
2026-04-07 11:38 -32.79112 -53.17083 25688 ft 479 kts 44°
2026-04-07 11:39 -32.76904 -53.14116 25856 ft 480 kts 44°
2026-04-07 11:39 -32.74687 -53.11139 26035 ft 481 kts 44°
2026-04-07 11:39 -32.72489 -53.08205 26194 ft 482 kts 43°
2026-04-07 11:39 -32.70225 -53.05267 26374 ft 483 kts 42°
2026-04-07 11:40 -32.67930 -53.02347 26536 ft 484 kts 42°
2026-04-07 11:40 -32.65622 -52.99436 26711 ft 485 kts 42°
2026-04-07 11:40 -32.63302 -52.96518 26866 ft 487 kts 42°
2026-04-07 11:40 -32.60976 -52.93592 27036 ft 488 kts 42°
2026-04-07 11:41 -32.58646 -52.90655 27200 ft 489 kts 42°
2026-04-07 11:41 -32.56313 -52.87713 27363 ft 491 kts 42°
2026-04-07 11:41 -32.53973 -52.84759 27520 ft 492 kts 42°
2026-04-07 11:41 -32.51625 -52.81796 27663 ft 494 kts 42°
2026-04-07 11:42 -32.49269 -52.78825 27821 ft 495 kts 42°
2026-04-07 11:42 -32.46907 -52.75848 27966 ft 497 kts 43°
2026-04-07 11:42 -32.42146 -52.69854 28224 ft 501 kts 43°
2026-04-07 11:43 -32.39767 -52.66820 28364 ft 503 kts 44°
2026-04-07 11:43 -32.37423 -52.63739 28523 ft 505 kts 44°
2026-04-07 11:43 -32.35087 -52.60621 28665 ft 507 kts 44°
2026-04-07 11:43 -32.32752 -52.57490 28807 ft 508 kts 44°
2026-04-07 11:44 -32.30411 -52.54352 28956 ft 510 kts 44°
2026-04-07 11:44 -32.28058 -52.51206 29050 ft 512 kts 44°
2026-04-07 11:44 -32.23306 -52.44887 29266 ft 516 kts 44°
2026-04-07 11:45 -32.20920 -52.41723 29426 ft 516 kts 44°
2026-04-07 11:45 -32.18531 -52.38559 29624 ft 516 kts 44°
2026-04-07 11:45 -32.16155 -52.35417 29802 ft 516 kts 44°
2026-04-07 11:45 -32.13762 -52.32256 29996 ft 517 kts 44°
2026-04-07 11:46 -32.11369 -52.29095 30159 ft 517 kts 44°
2026-04-07 11:46 -32.08975 -52.25937 30311 ft 516 kts 45°
2026-04-07 11:46 -32.06581 -52.22781 30472 ft 516 kts 45°
2026-04-07 11:46 -32.04187 -52.19628 30639 ft 516 kts 44°
2026-04-07 11:47 -32.01792 -52.16477 30777 ft 516 kts 44°
2026-04-07 11:47 -31.99398 -52.13330 30910 ft 516 kts 44°
2026-04-07 11:47 -31.96999 -52.10178 31062 ft 516 kts 44°
2026-04-07 11:47 -31.94604 -52.07035 31215 ft 516 kts 44°
2026-04-07 11:48 -31.92205 -52.03888 31366 ft 516 kts 44°
2026-04-07 11:48 -31.89805 -52.00744 31512 ft 516 kts 44°
2026-04-07 11:48 -31.87403 -51.97600 31674 ft 516 kts 44°
2026-04-07 11:48 -31.85001 -51.94456 31824 ft 516 kts 44°
2026-04-07 11:49 -31.82603 -51.91322 32008 ft 516 kts 44°
2026-04-07 11:49 -31.80199 -51.88183 32169 ft 516 kts 44°
2026-04-07 11:49 -31.77796 -51.85047 32328 ft 516 kts 44°
2026-04-07 11:49 -31.75392 -51.81913 32483 ft 516 kts 44°
2026-04-07 11:50 -31.72991 -51.78785 32621 ft 516 kts 44°
2026-04-07 11:50 -31.70580 -51.75647 32748 ft 517 kts 44°
2026-04-07 11:50 -31.68210 -51.72564 32981 ft 515 kts 44°
2026-04-07 11:50 -31.65810 -51.69445 33160 ft 514 kts 44°
2026-04-07 11:51 -31.63413 -51.66333 33295 ft 515 kts 44°
2026-04-07 11:51 -31.61012 -51.63218 33442 ft 515 kts 44°
2026-04-07 11:51 -31.58611 -51.60107 33592 ft 514 kts 44°
2026-04-07 11:51 -31.56210 -51.56997 33738 ft 514 kts 44°
2026-04-07 11:52 -31.53810 -51.53891 33891 ft 514 kts 44°
2026-04-07 11:52 -31.51409 -51.50787 34038 ft 514 kts 44°
2026-04-07 11:52 -31.49010 -51.47688 34164 ft 513 kts 43°
2026-04-07 11:52 -31.46611 -51.44592 34288 ft 513 kts 43°
2026-04-07 11:53 -31.44213 -51.41500 34420 ft 513 kts 43°
2026-04-07 11:53 -31.41817 -51.38412 34552 ft 512 kts 43°
2026-04-07 11:53 -31.39422 -51.35329 34677 ft 512 kts 43°
2026-04-07 11:53 -31.37030 -51.32253 34801 ft 511 kts 43°
2026-04-07 11:54 -31.34638 -51.29178 34959 ft 510 kts 43°
2026-04-07 11:54 -31.32254 -51.26117 35053 ft 510 kts 43°
2026-04-07 11:54 -31.27456 -51.19965 35057 ft 512 kts 43°
2026-04-07 11:55 -31.22701 -51.13875 35059 ft 510 kts 43°
2026-04-07 11:55 -31.17919 -51.07760 35062 ft 510 kts 43°
2026-04-07 11:56 -31.13130 -51.01647 35062 ft 510 kts 43°
2026-04-07 11:56 -31.08342 -50.95545 35064 ft 510 kts 43°
2026-04-07 11:57 -31.03547 -50.89445 35059 ft 510 kts 43°
2026-04-07 11:57 -30.98751 -50.83353 35061 ft 510 kts 43°
2026-04-07 11:58 -30.93952 -50.77267 35064 ft 510 kts 43°
2026-04-07 11:58 -30.89150 -50.71185 35051 ft 510 kts 43°
2026-04-07 11:59 -30.84358 -50.65125 35066 ft 508 kts 43°
2026-04-07 11:59 -30.79573 -50.59082 35071 ft 507 kts 43°
2026-04-07 12:00 -30.74789 -50.53052 35069 ft 507 kts 43°
2026-04-07 12:00 -30.70000 -50.47029 35067 ft 507 kts 43°
2026-04-07 12:01 -30.65209 -50.41013 35068 ft 507 kts 43°
2026-04-07 12:01 -30.60455 -50.35049 35074 ft 506 kts 43°
2026-04-07 12:02 -30.55672 -50.29058 35074 ft 506 kts 43°
2026-04-07 12:02 -30.50869 -50.23052 35067 ft 506 kts 43°
2026-04-07 12:03 -30.46086 -50.17080 35071 ft 505 kts 43°
2026-04-07 12:03 -30.41303 -50.11118 35081 ft 505 kts 43°
2026-04-07 12:04 -30.36517 -50.05161 35083 ft 505 kts 43°
2026-04-07 12:04 -30.31731 -49.99213 35083 ft 505 kts 43°
2026-04-07 12:05 -30.26973 -49.93309 35083 ft 505 kts 43°
2026-04-07 12:05 -30.22179 -49.87370 35091 ft 505 kts 43°
2026-04-07 12:06 -30.17383 -49.81437 35091 ft 505 kts 43°
2026-04-07 12:06 -30.12581 -49.75506 35097 ft 505 kts 43°
2026-04-07 12:07 -30.07782 -49.69587 35100 ft 505 kts 43°
2026-04-07 12:07 -30.02975 -49.63668 35099 ft 505 kts 43°
2026-04-07 12:08 -29.98169 -49.57758 35100 ft 505 kts 43°
2026-04-07 12:08 -29.93357 -49.51851 35096 ft 505 kts 43°
2026-04-07 12:09 -29.88545 -49.45954 35103 ft 505 kts 43°
2026-04-07 12:09 -29.83728 -49.40058 35106 ft 505 kts 43°
2026-04-07 12:10 -29.78911 -49.34171 35113 ft 505 kts 43°
2026-04-07 12:10 -29.74089 -49.28286 35107 ft 505 kts 43°
2026-04-07 12:11 -29.69268 -49.22412 35115 ft 505 kts 43°
2026-04-07 12:11 -29.64489 -49.16597 35103 ft 503 kts 43°
2026-04-07 12:12 -29.59682 -49.10758 35118 ft 503 kts 43°
2026-04-07 12:12 -29.54874 -49.04926 35117 ft 502 kts 43°
2026-04-07 12:13 -29.50069 -48.99105 35116 ft 502 kts 43°
2026-04-07 12:13 -29.45266 -48.93296 35113 ft 502 kts 43°
2026-04-07 12:14 -29.40451 -48.87502 35116 ft 502 kts 43°
2026-04-07 12:14 -29.35630 -48.81724 35116 ft 502 kts 43°
2026-04-07 12:15 -29.30808 -48.75954 35290 ft 500 kts 43°
2026-04-07 12:15 -29.28410 -48.73086 35539 ft 496 kts 43°
2026-04-07 12:15 -29.26026 -48.70237 35705 ft 495 kts 43°
2026-04-07 12:16 -29.23640 -48.67389 35807 ft 495 kts 43°
2026-04-07 12:16 -29.21255 -48.64545 35912 ft 495 kts 43°
2026-04-07 12:16 -29.18868 -48.61700 36022 ft 496 kts 43°
2026-04-07 12:16 -29.16482 -48.58858 36125 ft 495 kts 43°
2026-04-07 12:17 -29.14094 -48.56015 36235 ft 495 kts 43°
2026-04-07 12:17 -29.11706 -48.53173 36342 ft 495 kts 43°
2026-04-07 12:17 -29.09320 -48.50337 36459 ft 495 kts 43°
2026-04-07 12:17 -29.06932 -48.47500 36570 ft 495 kts 43°
2026-04-07 12:18 -29.04546 -48.44667 36678 ft 495 kts 43°
2026-04-07 12:18 -29.02160 -48.41836 36752 ft 495 kts 43°
2026-04-07 12:18 -28.97379 -48.36170 36933 ft 495 kts 43°
2026-04-07 12:19 -28.92598 -48.30512 37111 ft 495 kts 43°
2026-04-07 12:19 -28.87802 -48.24844 37128 ft 497 kts 43°
2026-04-07 12:20 -28.83027 -48.19210 37129 ft 497 kts 43°
2026-04-07 12:20 -28.78222 -48.13547 37131 ft 497 kts 43°
2026-04-07 12:21 -28.73415 -48.07890 37136 ft 497 kts 43°
2026-04-07 12:21 -28.68604 -48.02236 37134 ft 497 kts 43°
2026-04-07 12:22 -28.63791 -47.96589 37133 ft 497 kts 43°
2026-04-07 12:22 -28.58973 -47.90943 37133 ft 497 kts 43°
2026-04-07 12:23 -28.54966 -47.86253 37133 ft 497 kts 43°
2026-04-07 12:23 -28.50150 -47.80622 37126 ft 496 kts 43°
2026-04-07 12:24 -28.45338 -47.75006 37124 ft 495 kts 43°
2026-04-07 12:24 -28.40529 -47.69401 37142 ft 495 kts 43°
2026-04-07 12:25 -28.35715 -47.63798 37139 ft 495 kts 43°
2026-04-07 12:25 -28.30889 -47.58189 37135 ft 495 kts 43°
2026-04-07 12:26 -28.26070 -47.52596 37138 ft 496 kts 43°
2026-04-07 12:26 -28.21249 -47.47007 37138 ft 496 kts 43°
2026-04-07 12:27 -28.16426 -47.41424 37138 ft 496 kts 43°
2026-04-07 12:27 -28.11596 -47.35841 37136 ft 496 kts 42°
2026-04-07 12:28 -28.06769 -47.30268 37138 ft 496 kts 42°
2026-04-07 12:29 -27.99522 -47.21917 37135 ft 496 kts 42°
2026-04-07 12:29 -27.94720 -47.16392 37135 ft 496 kts 42°
2026-04-07 12:30 -27.89883 -47.10832 37137 ft 496 kts 42°
2026-04-07 12:30 -27.85046 -47.05277 37139 ft 496 kts 42°
2026-04-07 12:31 -27.80208 -46.99727 37139 ft 496 kts 42°
2026-04-07 12:31 -27.75364 -46.94184 37139 ft 496 kts 42°
2026-04-07 12:32 -27.70514 -46.88645 37133 ft 495 kts 42°
2026-04-07 12:32 -27.65671 -46.83119 37132 ft 495 kts 42°
2026-04-07 12:33 -27.60828 -46.77601 37134 ft 495 kts 42°
2026-04-07 12:33 -27.55980 -46.72086 37140 ft 495 kts 42°
2026-04-07 12:34 -27.51135 -46.66580 37137 ft 495 kts 42°
2026-04-07 12:34 -27.46287 -46.61078 37139 ft 495 kts 42°
2026-04-07 12:35 -27.41434 -46.55577 37140 ft 495 kts 42°
2026-04-07 12:35 -27.36578 -46.50081 37134 ft 495 kts 42°
2026-04-07 12:36 -27.31720 -46.44590 37134 ft 495 kts 42°
2026-04-07 12:36 -27.26866 -46.39110 37132 ft 494 kts 42°
2026-04-07 12:37 -27.22012 -46.33638 37131 ft 494 kts 41°
2026-04-07 12:37 -27.17184 -46.28202 37134 ft 495 kts 41°
2026-04-07 12:38 -27.12324 -46.22737 37141 ft 494 kts 41°
2026-04-07 12:38 -27.07462 -46.17277 37132 ft 494 kts 41°
2026-04-07 12:39 -27.02600 -46.11824 37134 ft 494 kts 41°
2026-04-07 12:39 -26.97739 -46.06380 37137 ft 494 kts 41°
2026-04-07 12:40 -26.92879 -46.00943 37129 ft 493 kts 41°
2026-04-07 12:40 -26.88033 -45.95529 37127 ft 492 kts 41°
2026-04-07 12:41 -26.83183 -45.90119 37133 ft 492 kts 41°
2026-04-07 12:41 -26.78327 -45.84709 37130 ft 493 kts 41°
2026-04-07 12:42 -26.73469 -45.79301 37129 ft 492 kts 41°
2026-04-07 12:42 -26.68616 -45.73908 37127 ft 492 kts 41°
2026-04-07 12:43 -26.63752 -45.68509 37130 ft 493 kts 41°
2026-04-07 12:43 -26.58884 -45.63113 37132 ft 493 kts 41°
2026-04-07 12:44 -26.54015 -45.57721 37129 ft 492 kts 42°
2026-04-07 12:44 -26.49186 -45.52381 37125 ft 492 kts 42°
2026-04-07 12:45 -26.44320 -45.47006 37127 ft 492 kts 42°
2026-04-07 12:45 -26.39449 -45.41633 37127 ft 492 kts 42°
2026-04-07 12:46 -26.34576 -45.36265 37126 ft 492 kts 41°
2026-04-07 12:46 -26.29700 -45.30900 37125 ft 493 kts 41°
2026-04-07 12:47 -26.24816 -45.25533 37127 ft 493 kts 41°
2026-04-07 12:47 -26.19932 -45.20173 37127 ft 493 kts 41°
2026-04-07 12:48 -26.15043 -45.14814 37124 ft 493 kts 41°
2026-04-07 12:48 -26.10150 -45.09458 37124 ft 494 kts 41°
2026-04-07 12:49 -26.05253 -45.04103 37124 ft 494 kts 41°
2026-04-07 12:49 -26.00357 -44.98756 37121 ft 493 kts 41°
2026-04-07 12:50 -25.95457 -44.93411 37121 ft 494 kts 41°
2026-04-07 12:50 -25.90553 -44.88068 37120 ft 493 kts 41°
2026-04-07 12:51 -25.85652 -44.82736 37121 ft 493 kts 41°
2026-04-07 12:51 -25.80745 -44.77404 37122 ft 493 kts 41°
2026-04-07 12:52 -25.75838 -44.72079 37117 ft 493 kts 41°
2026-04-07 12:52 -25.70960 -44.66790 37119 ft 494 kts 41°
2026-04-07 12:53 -25.66047 -44.61471 37121 ft 494 kts 41°
2026-04-07 12:53 -25.61136 -44.56160 37119 ft 494 kts 41°
2026-04-07 12:54 -25.56212 -44.50841 37119 ft 494 kts 41°
2026-04-07 12:54 -25.51295 -44.45537 37118 ft 494 kts 41°
2026-04-07 12:55 -25.46369 -44.40229 37110 ft 494 kts 41°
2026-04-07 12:55 -25.41443 -44.34928 37119 ft 494 kts 41°
2026-04-07 12:56 -25.36511 -44.29628 37118 ft 494 kts 41°
2026-04-07 12:56 -25.31578 -44.24332 37118 ft 494 kts 41°
2026-04-07 12:57 -25.26646 -44.19044 37117 ft 494 kts 41°
2026-04-07 12:57 -25.21714 -44.13762 37116 ft 494 kts 41°
2026-04-07 12:58 -25.16780 -44.08484 37116 ft 494 kts 41°
2026-04-07 12:58 -25.11842 -44.03208 37117 ft 493 kts 41°
2026-04-07 12:59 -25.06910 -43.97945 37114 ft 494 kts 41°
2026-04-07 12:59 -25.01971 -43.92681 37117 ft 494 kts 41°
2026-04-07 13:00 -24.97028 -43.87419 37118 ft 494 kts 41°
2026-04-07 13:00 -24.92085 -43.82163 37118 ft 493 kts 41°
2026-04-07 13:01 -24.87141 -43.76911 37115 ft 494 kts 41°
2026-04-07 13:01 -24.82192 -43.71661 37114 ft 494 kts 41°
2026-04-07 13:02 -24.77240 -43.66414 37116 ft 494 kts 41°
2026-04-07 13:02 -24.72290 -43.61175 37114 ft 494 kts 41°
2026-04-07 13:03 -24.67331 -43.55933 37114 ft 495 kts 41°
2026-04-07 13:03 -24.62370 -43.50694 37113 ft 494 kts 41°
2026-04-07 13:04 -24.57410 -43.45464 37113 ft 494 kts 41°
2026-04-07 13:04 -24.52447 -43.40235 37113 ft 494 kts 41°
2026-04-07 13:05 -24.47481 -43.35010 37109 ft 495 kts 41°
2026-04-07 13:05 -24.42540 -43.29816 37110 ft 495 kts 41°
2026-04-07 13:06 -24.37564 -43.24591 37113 ft 495 kts 41°
2026-04-07 13:06 -24.32585 -43.19370 37110 ft 495 kts 41°
2026-04-07 13:07 -24.27609 -43.14157 37110 ft 495 kts 41°
2026-04-07 13:07 -24.22635 -43.08953 37110 ft 494 kts 41°
2026-04-07 13:08 -24.17656 -43.03750 37111 ft 495 kts 41°
2026-04-07 13:08 -24.12675 -42.98551 37107 ft 495 kts 41°
2026-04-07 13:09 -24.07695 -42.93358 37108 ft 494 kts 41°
2026-04-07 13:09 -24.02712 -42.88168 37110 ft 494 kts 41°
2026-04-07 13:10 -23.97730 -42.82984 37111 ft 494 kts 41°
2026-04-07 13:10 -23.92743 -42.77802 37109 ft 495 kts 41°
2026-04-07 13:11 -23.87751 -42.72620 37107 ft 495 kts 41°
2026-04-07 13:11 -23.83599 -42.68315 37110 ft 495 kts 41°
2026-04-07 13:12 -23.78600 -42.63137 37110 ft 495 kts 41°
2026-04-07 13:12 -23.73607 -42.57970 37110 ft 494 kts 41°
2026-04-07 13:13 -23.68613 -42.52808 37110 ft 494 kts 41°
2026-04-07 13:13 -23.63615 -42.47647 37110 ft 495 kts 41°
2026-04-07 13:14 -23.58619 -42.42494 37110 ft 494 kts 41°
2026-04-07 13:14 -23.53624 -42.37349 37108 ft 494 kts 41°
2026-04-07 13:15 -23.48625 -42.32205 37113 ft 495 kts 41°
2026-04-07 13:15 -23.43652 -42.27093 37116 ft 495 kts 41°
2026-04-07 13:16 -23.38649 -42.21955 37113 ft 494 kts 41°
2026-04-07 13:16 -23.33645 -42.16822 37110 ft 494 kts 41°
2026-04-07 13:17 -23.28638 -42.11692 37110 ft 495 kts 41°
2026-04-07 13:17 -23.23626 -42.06563 37115 ft 494 kts 42°
2026-04-07 13:18 -23.18618 -42.01442 37113 ft 494 kts 42°
2026-04-07 13:18 -23.13611 -41.96329 37111 ft 494 kts 42°
2026-04-07 13:19 -23.08596 -41.91212 37109 ft 495 kts 42°
2026-04-07 13:19 -23.03583 -41.86103 37111 ft 494 kts 42°
2026-04-07 13:20 -22.98570 -41.81001 37110 ft 494 kts 42°
2026-04-07 13:20 -22.93556 -41.75902 37115 ft 494 kts 42°
2026-04-07 13:21 -22.88539 -41.70806 37114 ft 494 kts 42°
2026-04-07 13:21 -22.83530 -41.65722 37108 ft 493 kts 42°
2026-04-07 13:22 -22.78552 -41.60683 37113 ft 493 kts 40°
2026-04-07 13:22 -22.73107 -41.56190 37114 ft 492 kts 34°
2026-04-07 13:23 -22.67497 -41.51962 37113 ft 491 kts 33°
2026-04-07 13:23 -22.61863 -41.47790 37112 ft 491 kts 33°
2026-04-07 13:24 -22.56232 -41.43615 37112 ft 491 kts 33°
2026-04-07 13:24 -22.50602 -41.39440 37113 ft 491 kts 33°
2026-04-07 13:25 -22.44972 -41.35265 37112 ft 491 kts 33°
2026-04-07 13:25 -22.39344 -41.31090 37112 ft 491 kts 33°
2026-04-07 13:26 -22.33716 -41.26917 37112 ft 491 kts 33°
2026-04-07 13:26 -22.28087 -41.22746 37110 ft 491 kts 34°
2026-04-07 13:27 -22.22454 -41.18577 37110 ft 491 kts 33°
2026-04-07 13:27 -22.16817 -41.14410 37111 ft 491 kts 33°
2026-04-07 13:28 -22.11184 -41.10249 37110 ft 491 kts 33°
2026-04-07 13:28 -22.05550 -41.06093 37108 ft 491 kts 33°
2026-04-07 13:29 -21.99911 -41.01936 37108 ft 491 kts 33°
2026-04-07 13:29 -21.94272 -40.97784 37111 ft 491 kts 33°
2026-04-07 13:30 -21.88630 -40.93634 37110 ft 491 kts 34°
2026-04-07 13:30 -21.82984 -40.89486 37112 ft 491 kts 34°
2026-04-07 13:31 -21.77374 -40.85369 37110 ft 491 kts 33°
2026-04-07 13:31 -21.71725 -40.81228 37107 ft 491 kts 34°
2026-04-07 13:32 -21.66074 -40.77088 37107 ft 492 kts 34°
2026-04-07 13:32 -21.60420 -40.72950 37106 ft 492 kts 34°
2026-04-07 13:33 -21.54766 -40.68817 37106 ft 492 kts 34°
2026-04-07 13:33 -21.46287 -40.62625 37106 ft 491 kts 34°
2026-04-07 13:34 -21.40633 -40.58502 37107 ft 491 kts 34°
2026-04-07 13:34 -21.34982 -40.54385 37107 ft 491 kts 34°
2026-04-07 13:35 -21.29329 -40.50269 37108 ft 491 kts 34°
2026-04-07 13:35 -21.23679 -40.46160 37104 ft 490 kts 34°
2026-04-07 13:36 -21.18030 -40.42056 37105 ft 491 kts 34°
2026-04-07 13:36 -21.12373 -40.37952 37105 ft 491 kts 34°
2026-04-07 13:37 -21.06722 -40.33859 37104 ft 490 kts 34°
2026-04-07 13:37 -21.01078 -40.29774 37105 ft 489 kts 34°
2026-04-07 13:38 -20.95442 -40.25699 37105 ft 489 kts 34°
2026-04-07 13:38 -20.89845 -40.21643 37102 ft 490 kts 34°
2026-04-07 13:39 -20.84176 -40.17531 37098 ft 489 kts 35°
2026-04-07 13:39 -20.78581 -40.13487 37100 ft 489 kts 34°
2026-04-07 13:40 -20.72950 -40.09425 37100 ft 489 kts 34°
2026-04-07 13:40 -20.67316 -40.05366 37101 ft 488 kts 35°
2026-04-07 13:41 -20.61688 -40.01315 37096 ft 487 kts 35°
2026-04-07 13:41 -20.56042 -39.97313 37097 ft 487 kts 33°
2026-04-07 13:42 -20.50206 -39.93616 37096 ft 488 kts 31°
2026-04-07 13:42 -20.44312 -39.90025 37097 ft 488 kts 31°
2026-04-07 13:43 -20.38430 -39.86420 37096 ft 488 kts 31°
2026-04-07 13:43 -20.32558 -39.82790 37094 ft 488 kts 31°
2026-04-07 13:44 -20.26694 -39.79154 37095 ft 488 kts 31°
2026-04-07 13:44 -20.20831 -39.75521 37092 ft 488 kts 31°
2026-04-07 13:45 -20.14962 -39.71888 37091 ft 488 kts 31°
2026-04-07 13:45 -20.09093 -39.68260 37088 ft 488 kts 31°
2026-04-07 13:46 -20.03226 -39.64636 37088 ft 488 kts 31°
2026-04-07 13:46 -19.97351 -39.61010 37088 ft 488 kts 31°
2026-04-07 13:47 -19.91520 -39.57414 37089 ft 488 kts 31°
2026-04-07 13:47 -19.85646 -39.53788 37088 ft 488 kts 31°
2026-04-07 13:48 -19.79828 -39.50078 37089 ft 488 kts 32°
2026-04-07 13:48 -19.74034 -39.46329 37089 ft 488 kts 32°
2026-04-07 13:49 -19.68229 -39.42580 37086 ft 488 kts 32°
2026-04-07 13:49 -19.62422 -39.38844 37086 ft 488 kts 32°
2026-04-07 13:50 -19.56607 -39.35112 37088 ft 488 kts 32°
2026-04-07 13:50 -19.50776 -39.31423 37086 ft 488 kts 30°
2026-04-07 13:51 -19.44836 -39.27936 37086 ft 488 kts 29°
2026-04-07 13:51 -19.38866 -39.24511 37080 ft 488 kts 29°
2026-04-07 13:52 -19.32899 -39.21071 37081 ft 488 kts 29°
2026-04-07 13:52 -19.26947 -39.17621 37083 ft 487 kts 29°
2026-04-07 13:53 -19.21041 -39.14193 37083 ft 487 kts 29°
2026-04-07 13:53 -19.15091 -39.10743 37080 ft 487 kts 29°
2026-04-07 13:54 -19.09165 -39.07259 37080 ft 487 kts 30°
2026-04-07 13:54 -19.03268 -39.03738 37077 ft 487 kts 30°
2026-04-07 13:55 -18.97370 -39.00215 37078 ft 487 kts 30°
2026-04-07 13:55 -18.91469 -38.96700 37075 ft 487 kts 30°
2026-04-07 13:56 -18.85571 -38.93195 37072 ft 487 kts 30°
2026-04-07 13:56 -18.79669 -38.89690 37075 ft 486 kts 30°
2026-04-07 13:57 -18.73771 -38.86191 37075 ft 486 kts 30°
2026-04-07 13:57 -18.67871 -38.82694 37075 ft 486 kts 30°
2026-04-07 13:58 -18.61970 -38.79198 37075 ft 486 kts 29°
2026-04-07 13:58 -18.56116 -38.75733 37072 ft 486 kts 29°
2026-04-07 13:59 -18.50212 -38.72271 37072 ft 486 kts 28°
2026-04-07 13:59 -18.44243 -38.68929 37075 ft 486 kts 28°
2026-04-07 14:00 -18.38259 -38.65622 37075 ft 485 kts 27°
2026-04-07 14:00 -18.32297 -38.62320 37072 ft 484 kts 27°
2026-04-07 14:01 -18.26341 -38.59012 37072 ft 484 kts 28°
2026-04-07 14:01 -18.20388 -38.55704 37072 ft 484 kts 28°
2026-04-07 14:02 -18.14436 -38.52398 37072 ft 483 kts 27°
2026-04-07 14:02 -18.09493 -38.49656 37069 ft 483 kts 27°
2026-04-07 14:03 -18.03547 -38.46360 37070 ft 483 kts 27°
2026-04-07 14:03 -17.97601 -38.43066 37067 ft 483 kts 27°
2026-04-07 14:04 -17.91654 -38.39774 37067 ft 483 kts 27°
2026-04-07 14:04 -17.85710 -38.36486 37070 ft 483 kts 27°
2026-04-07 14:05 -17.79765 -38.33200 37070 ft 483 kts 27°
2026-04-07 14:05 -17.73820 -38.29917 37067 ft 483 kts 27°
2026-04-07 14:06 -17.67873 -38.26635 37067 ft 483 kts 27°
2026-04-07 14:06 -17.61926 -38.23355 37064 ft 483 kts 27°
2026-04-07 14:07 -17.55978 -38.20078 37064 ft 483 kts 27°
2026-04-07 14:07 -17.50029 -38.16802 37064 ft 483 kts 27°
2026-04-07 14:08 -17.44077 -38.13528 37063 ft 483 kts 27°
2026-04-07 14:08 -17.38125 -38.10255 37064 ft 483 kts 27°
2026-04-07 14:09 -17.32176 -38.06987 37061 ft 483 kts 27°
2026-04-07 14:09 -17.26220 -38.03717 37058 ft 483 kts 27°
2026-04-07 14:10 -17.20267 -38.00452 37058 ft 483 kts 27°
2026-04-07 14:10 -17.14316 -37.97189 37061 ft 483 kts 27°
2026-04-07 14:11 -17.08362 -37.93927 37061 ft 483 kts 27°
2026-04-07 14:11 -17.02442 -37.90687 37058 ft 484 kts 27°
2026-04-07 14:12 -16.96441 -37.87404 37054 ft 484 kts 27°
2026-04-07 14:12 -16.90519 -37.84167 37056 ft 483 kts 27°
2026-04-07 14:13 -16.84561 -37.80913 37058 ft 483 kts 27°
2026-04-07 14:13 -16.78601 -37.77660 37059 ft 483 kts 27°
2026-04-07 14:14 -16.72638 -37.74407 37056 ft 483 kts 26°
2026-04-07 14:14 -16.66679 -37.71160 37058 ft 483 kts 26°
2026-04-07 14:15 -16.60713 -37.67911 37056 ft 484 kts 26°
2026-04-07 14:15 -16.54745 -37.64662 37056 ft 484 kts 26°
2026-04-07 14:16 -16.48781 -37.61418 37056 ft 484 kts 26°
2026-04-07 14:16 -16.42813 -37.58175 37053 ft 484 kts 26°
2026-04-07 14:17 -16.36840 -37.54931 37053 ft 484 kts 26°
2026-04-07 14:17 -16.30868 -37.51690 37050 ft 484 kts 26°
2026-04-07 14:18 -16.24931 -37.48470 37050 ft 484 kts 26°
2026-04-07 14:18 -16.18954 -37.45230 37050 ft 484 kts 26°
2026-04-07 14:19 -16.12975 -37.41991 37051 ft 484 kts 26°
2026-04-07 14:19 -16.07006 -37.38732 37048 ft 485 kts 26°
2026-04-07 14:20 -16.01043 -37.35457 37048 ft 485 kts 26°
2026-04-07 14:20 -15.95080 -37.32184 37047 ft 485 kts 26°
2026-04-07 14:21 -15.89100 -37.28907 37048 ft 487 kts 26°
2026-04-07 14:21 -15.83107 -37.25628 37045 ft 487 kts 26°
2026-04-07 14:22 -15.77113 -37.22350 37048 ft 487 kts 26°
2026-04-07 14:22 -15.71171 -37.19102 37040 ft 485 kts 26°
2026-04-07 14:23 -15.65188 -37.15834 37044 ft 486 kts 26°
2026-04-07 14:23 -15.59196 -37.12564 37042 ft 487 kts 26°
2026-04-07 14:24 -15.53200 -37.09293 37042 ft 487 kts 26°
2026-04-07 14:24 -15.47208 -37.06027 37042 ft 487 kts 26°
2026-04-07 14:25 -15.41189 -37.02749 37043 ft 488 kts 26°
2026-04-07 14:25 -15.35168 -36.99471 37042 ft 489 kts 26°
2026-04-07 14:26 -15.29183 -36.96215 37042 ft 488 kts 26°
2026-04-07 14:26 -15.23176 -36.92949 37039 ft 488 kts 26°
2026-04-07 14:27 -15.17171 -36.89687 37040 ft 488 kts 26°
2026-04-07 14:27 -15.11160 -36.86423 37035 ft 488 kts 26°
2026-04-07 14:28 -15.05151 -36.83162 37036 ft 488 kts 26°
2026-04-07 14:28 -14.99102 -36.79882 37037 ft 488 kts 26°
2026-04-07 14:29 -14.93130 -36.76646 37031 ft 488 kts 26°
2026-04-07 14:29 -14.87067 -36.73362 37035 ft 489 kts 26°
2026-04-07 14:30 -14.81083 -36.70123 37034 ft 488 kts 26°
2026-04-07 14:30 -14.75067 -36.66869 37031 ft 488 kts 26°
2026-04-07 14:31 -14.69048 -36.63616 37032 ft 488 kts 26°
2026-04-07 14:31 -14.63027 -36.60363 37030 ft 489 kts 25°
2026-04-07 14:32 -14.56985 -36.57102 37028 ft 490 kts 26°
2026-04-07 14:32 -14.50941 -36.53841 37026 ft 490 kts 25°
2026-04-07 14:33 -14.44897 -36.50581 37026 ft 490 kts 25°
2026-04-07 14:33 -14.38850 -36.47323 37026 ft 491 kts 25°
2026-04-07 14:34 -14.32789 -36.44059 37027 ft 492 kts 25°
2026-04-07 14:34 -14.26723 -36.40794 37028 ft 492 kts 25°
2026-04-07 14:35 -14.20656 -36.37531 37038 ft 492 kts 25°
2026-04-07 14:35 -14.14589 -36.34269 37028 ft 492 kts 25°
2026-04-07 14:36 -14.08506 -36.31002 37017 ft 494 kts 25°
2026-04-07 14:36 -14.02415 -36.27732 37015 ft 494 kts 25°
2026-04-07 14:37 -13.96322 -36.24462 37017 ft 493 kts 25°
2026-04-07 14:37 -13.90244 -36.21202 37030 ft 492 kts 25°
2026-04-07 14:38 -13.84165 -36.17945 37019 ft 493 kts 25°
2026-04-07 14:38 -13.78074 -36.14683 37027 ft 494 kts 25°
2026-04-07 14:39 -13.68931 -36.09789 37018 ft 494 kts 25°
2026-04-07 14:40 -13.62834 -36.06528 36994 ft 494 kts 25°
2026-04-07 14:40 -13.56724 -36.03262 37009 ft 495 kts 25°
2026-04-07 14:41 -13.50606 -35.99995 37024 ft 496 kts 25°
2026-04-07 14:41 -13.44501 -35.96734 37018 ft 494 kts 25°
2026-04-07 14:42 -13.38406 -35.93483 37010 ft 493 kts 25°
2026-04-07 14:42 -13.32350 -35.90254 37012 ft 494 kts 25°
2026-04-07 14:43 -13.26248 -35.86986 37011 ft 495 kts 25°
2026-04-07 14:43 -13.20144 -35.83700 37011 ft 495 kts 25°
2026-04-07 14:44 -13.14041 -35.80414 37017 ft 495 kts 25°
2026-04-07 14:44 -13.07935 -35.77131 37006 ft 496 kts 25°
2026-04-07 14:45 -13.01818 -35.73846 37015 ft 496 kts 25°
2026-04-07 14:45 -12.95707 -35.70566 37013 ft 495 kts 25°
2026-04-07 14:46 -12.89608 -35.67294 37002 ft 495 kts 25°
2026-04-07 14:46 -12.83504 -35.64022 37003 ft 495 kts 25°
2026-04-07 14:47 -12.77397 -35.60749 37011 ft 496 kts 25°
2026-04-07 14:47 -12.71277 -35.57472 37009 ft 496 kts 25°
2026-04-07 14:48 -12.65157 -35.54196 37011 ft 497 kts 25°
2026-04-07 14:48 -12.59033 -35.50919 37006 ft 497 kts 25°
2026-04-07 14:49 -12.52914 -35.47647 37007 ft 495 kts 25°
2026-04-07 14:49 -12.46818 -35.44389 37008 ft 494 kts 25°
2026-04-07 14:50 -12.40727 -35.41136 37011 ft 494 kts 25°
2026-04-07 14:50 -12.34634 -35.37883 37010 ft 494 kts 25°
2026-04-07 14:51 -12.29568 -35.35181 37011 ft 494 kts 25°
2026-04-07 14:51 -12.23468 -35.31927 37009 ft 495 kts 25°
2026-04-07 14:52 -12.17345 -35.28664 37002 ft 497 kts 25°
2026-04-07 14:52 -12.11215 -35.25398 37002 ft 497 kts 25°
2026-04-07 14:53 -12.05091 -35.22135 37007 ft 495 kts 24°
2026-04-07 14:53 -11.99002 -35.18894 36998 ft 493 kts 24°
2026-04-07 14:54 -11.92912 -35.15655 36998 ft 494 kts 24°
2026-04-07 14:54 -11.86817 -35.12416 37004 ft 494 kts 24°
2026-04-07 14:55 -11.80724 -35.09178 37002 ft 494 kts 24°
2026-04-07 14:55 -11.74629 -35.05940 37001 ft 494 kts 24°
2026-04-07 14:56 -11.68569 -35.02723 36998 ft 494 kts 24°
2026-04-07 14:56 -11.62467 -34.99486 37001 ft 494 kts 24°
2026-04-07 14:57 -11.56372 -34.96255 36998 ft 493 kts 24°
2026-04-07 14:57 -11.50293 -34.93033 36995 ft 492 kts 24°
2026-04-07 14:58 -11.44218 -34.89815 36997 ft 492 kts 24°
2026-04-07 14:58 -11.38143 -34.86598 36996 ft 492 kts 24°
2026-04-07 14:59 -11.32065 -34.83381 36992 ft 492 kts 24°
2026-04-07 14:59 -11.25984 -34.80164 36992 ft 492 kts 24°
2026-04-07 15:00 -11.19905 -34.76949 36995 ft 493 kts 24°
2026-04-07 15:00 -11.13822 -34.73734 36993 ft 492 kts 25°
2026-04-07 15:01 -11.07757 -34.70529 36993 ft 490 kts 24°
2026-04-07 15:01 -11.01717 -34.67340 36989 ft 489 kts 24°
2026-04-07 15:02 -10.95685 -34.64156 36992 ft 489 kts 24°
2026-04-07 15:02 -10.89647 -34.60971 36989 ft 489 kts 24°
2026-04-07 15:03 -10.83611 -34.57788 36988 ft 487 kts 24°
2026-04-07 15:03 -10.77604 -34.54621 36988 ft 486 kts 24°
2026-04-07 15:04 -10.71602 -34.51460 36989 ft 486 kts 24°
2026-04-07 15:04 -10.65600 -34.48300 36986 ft 486 kts 24°
2026-04-07 15:05 -10.59606 -34.45143 36988 ft 483 kts 24°
2026-04-07 15:05 -10.53653 -34.42010 36986 ft 481 kts 24°
2026-04-07 15:06 -10.47716 -34.38889 36984 ft 480 kts 24°
2026-04-07 15:06 -10.41781 -34.35770 36985 ft 480 kts 24°
2026-04-07 15:07 -10.35845 -34.32651 36985 ft 480 kts 24°
2026-04-07 15:07 -10.29906 -34.29532 36975 ft 480 kts 24°
2026-04-07 15:08 -10.23975 -34.26418 36977 ft 479 kts 24°
2026-04-07 15:08 -10.18056 -34.23312 36986 ft 479 kts 24°
2026-04-07 15:09 -10.12137 -34.20207 36980 ft 478 kts 24°
2026-04-07 15:09 -10.06271 -34.17131 36980 ft 477 kts 24°
2026-04-07 15:10 -10.00372 -34.14040 36973 ft 477 kts 24°
2026-04-07 15:10 -9.94475 -34.10951 36979 ft 477 kts 24°
2026-04-07 15:11 -9.88579 -34.07863 36975 ft 477 kts 24°
2026-04-07 15:11 -9.82681 -34.04776 36975 ft 477 kts 24°
2026-04-07 15:12 -9.76782 -34.01689 36979 ft 477 kts 24°
2026-04-07 15:12 -9.70882 -33.98603 36973 ft 477 kts 24°
2026-04-07 15:13 -9.64982 -33.95519 36970 ft 477 kts 24°
2026-04-07 15:13 -9.59082 -33.92435 36972 ft 477 kts 24°
2026-04-07 15:14 -9.53177 -33.89351 36970 ft 477 kts 24°
2026-04-07 15:14 -9.47274 -33.86268 36972 ft 477 kts 24°
2026-04-07 15:15 -9.41374 -33.83188 36969 ft 477 kts 24°
2026-04-07 15:15 -9.35476 -33.80110 36967 ft 477 kts 24°
2026-04-07 15:16 -9.29578 -33.77034 36968 ft 477 kts 24°
2026-04-07 15:16 -9.23686 -33.73962 36968 ft 477 kts 24°
2026-04-07 15:17 -9.17831 -33.70910 36970 ft 477 kts 24°
2026-04-07 15:17 -9.11936 -33.67838 36971 ft 475 kts 25°
2026-04-07 15:18 -9.06083 -33.64789 36958 ft 472 kts 25°
2026-04-07 15:18 -9.00248 -33.61752 36979 ft 472 kts 25°
2026-04-07 15:19 -8.94413 -33.58715 36977 ft 472 kts 25°
2026-04-07 15:19 -8.88577 -33.55679 36962 ft 472 kts 25°
2026-04-07 15:20 -8.82742 -33.52645 36973 ft 471 kts 26°
2026-04-07 15:20 -8.76929 -33.49622 36961 ft 469 kts 25°
2026-04-07 15:21 -8.71131 -33.46609 36959 ft 468 kts 25°
2026-04-07 15:21 -8.65338 -33.43600 36957 ft 468 kts 25°
2026-04-07 15:22 -8.59546 -33.40592 36954 ft 467 kts 25°
2026-04-07 15:22 -8.53763 -33.37588 36964 ft 467 kts 26°
2026-04-07 15:23 -8.47990 -33.34560 36965 ft 468 kts 26°
2026-04-07 15:23 -8.42213 -33.31515 36964 ft 468 kts 26°
2026-04-07 15:24 -8.36434 -33.28471 36965 ft 468 kts 26°
2026-04-07 15:24 -8.30659 -33.25433 36967 ft 468 kts 26°
2026-04-07 15:25 -8.24882 -33.22397 36960 ft 468 kts 26°
2026-04-07 15:25 -8.19103 -33.19361 36960 ft 468 kts 27°
2026-04-07 15:26 -8.13326 -33.16327 36962 ft 468 kts 27°
2026-04-07 15:26 -8.07547 -33.13293 36965 ft 469 kts 27°
2026-04-07 15:27 -8.01754 -33.10251 36964 ft 470 kts 27°
2026-04-07 15:27 -7.95953 -33.07207 36963 ft 470 kts 27°
2026-04-07 15:28 -7.90147 -33.04162 36965 ft 471 kts 27°
2026-04-07 15:28 -7.84326 -33.01110 36961 ft 472 kts 27°
2026-04-07 15:29 -7.78499 -32.98055 36962 ft 472 kts 27°
2026-04-07 15:29 -7.72716 -32.95023 36962 ft 472 kts 27°
2026-04-07 15:30 -7.66892 -32.91971 36959 ft 472 kts 27°
2026-04-07 15:30 -7.61066 -32.88920 36959 ft 473 kts 28°
2026-04-07 15:31 -7.55222 -32.85859 36954 ft 474 kts 28°
2026-04-07 15:31 -7.49370 -32.82796 36958 ft 474 kts 27°
2026-04-07 15:32 -7.43519 -32.79734 36956 ft 474 kts 28°
2026-04-07 15:32 -7.37670 -32.76674 36951 ft 474 kts 28°
2026-04-07 15:33 -7.31816 -32.73614 36961 ft 474 kts 28°
2026-04-07 15:33 -7.25962 -32.70553 36957 ft 474 kts 28°
2026-04-07 15:34 -7.20108 -32.67493 36959 ft 474 kts 28°
2026-04-07 15:34 -7.14249 -32.64432 36957 ft 474 kts 28°
2026-04-07 15:35 -7.08390 -32.61371 36959 ft 474 kts 28°
2026-04-07 15:35 -7.02535 -32.58313 36959 ft 474 kts 29°
2026-04-07 15:36 -6.96657 -32.55245 36956 ft 476 kts 28°
2026-04-07 15:36 -6.90808 -32.52192 36952 ft 477 kts 28°
2026-04-07 15:37 -6.84920 -32.49120 36959 ft 477 kts 28°
2026-04-07 15:37 -6.79027 -32.46046 36958 ft 477 kts 28°
2026-04-07 15:38 -6.73134 -32.42973 36957 ft 477 kts 28°
2026-04-07 15:38 -6.67241 -32.39901 36952 ft 477 kts 28°
2026-04-07 15:39 -6.61346 -32.36828 36952 ft 477 kts 28°
2026-04-07 15:39 -6.56410 -32.34256 36959 ft 477 kts 28°
2026-04-07 15:40 -6.50515 -32.31185 36954 ft 478 kts 28°
2026-04-07 15:40 -6.44608 -32.28109 36949 ft 478 kts 28°
2026-04-07 15:41 -6.38694 -32.25030 36965 ft 480 kts 28°
2026-04-07 15:41 -6.32800 -32.21962 36944 ft 481 kts 28°
2026-04-07 15:42 -6.26859 -32.18869 36959 ft 481 kts 28°
2026-04-07 15:42 -6.17945 -32.14232 36945 ft 481 kts 28°
2026-04-07 15:43 -6.12004 -32.11143 36961 ft 481 kts 27°
2026-04-07 15:43 -6.06060 -32.08052 36945 ft 481 kts 28°
2026-04-07 15:44 -6.00105 -32.04957 36963 ft 482 kts 28°
2026-04-07 15:44 -5.94148 -32.01861 36946 ft 482 kts 28°
2026-04-07 15:45 -5.88189 -31.98766 36946 ft 482 kts 27°
2026-04-07 15:45 -5.82230 -31.95670 36944 ft 482 kts 27°
2026-04-07 15:46 -5.76266 -31.92589 36962 ft 483 kts 27°
2026-04-07 15:46 -5.70279 -31.89526 36945 ft 483 kts 27°
2026-04-07 15:47 -5.64293 -31.86469 36959 ft 483 kts 27°
2026-04-07 15:47 -5.58304 -31.83408 36942 ft 483 kts 27°
2026-04-07 15:48 -5.52322 -31.80349 36960 ft 483 kts 27°
2026-04-07 15:48 -5.46340 -31.77289 36942 ft 482 kts 27°
2026-04-07 15:49 -5.40408 -31.74257 36944 ft 481 kts 27°
2026-04-07 15:49 -5.34445 -31.71209 36959 ft 481 kts 27°
2026-04-07 15:50 -5.28479 -31.68161 36942 ft 481 kts 26°
2026-04-07 15:50 -5.22514 -31.65114 36942 ft 481 kts 26°
2026-04-07 15:51 -5.16548 -31.62067 36942 ft 481 kts 27°
2026-04-07 15:51 -5.10597 -31.59028 36959 ft 480 kts 27°
2026-04-07 15:52 -5.04652 -31.55992 36943 ft 480 kts 27°
2026-04-07 15:52 -4.98707 -31.52957 36955 ft 479 kts 27°
2026-04-07 15:53 -4.92764 -31.49924 36945 ft 479 kts 27°
2026-04-07 15:53 -4.86818 -31.46890 36953 ft 479 kts 26°
2026-04-07 15:54 -4.80892 -31.43867 36951 ft 477 kts 26°
2026-04-07 15:54 -4.74982 -31.40853 36941 ft 476 kts 26°
2026-04-07 15:55 -4.69075 -31.37840 36951 ft 476 kts 26°
2026-04-07 15:55 -4.63163 -31.34826 36944 ft 477 kts 26°
2026-04-07 15:56 -4.57253 -31.31813 36959 ft 477 kts 26°
2026-04-07 15:56 -4.51341 -31.28800 36945 ft 477 kts 26°
2026-04-07 15:57 -4.45421 -31.25784 36957 ft 477 kts 26°
2026-04-07 15:57 -4.39540 -31.22788 36941 ft 477 kts 26°
2026-04-07 15:58 -4.33618 -31.19772 36957 ft 477 kts 26°
2026-04-07 15:58 -4.27697 -31.16756 36958 ft 477 kts 26°
2026-04-07 15:59 -4.21773 -31.13741 36954 ft 477 kts 26°
2026-04-07 15:59 -4.15850 -31.10726 36952 ft 478 kts 26°
2026-04-07 16:00 -4.09925 -31.07712 36957 ft 478 kts 26°
2026-04-07 16:00 -4.04002 -31.04698 36941 ft 478 kts 26°
2026-04-07 16:01 -3.98074 -31.01683 36959 ft 478 kts 26°
2026-04-07 16:01 -3.92151 -30.98670 36937 ft 478 kts 26°
2026-04-07 16:02 -3.86233 -30.95661 36957 ft 476 kts 26°
2026-04-07 16:02 -3.80331 -30.92660 36948 ft 475 kts 26°
2026-04-07 16:03 -3.74433 -30.89662 36955 ft 475 kts 26°
2026-04-07 16:03 -3.68532 -30.86663 36941 ft 475 kts 26°
2026-04-07 16:04 -3.62633 -30.83666 36955 ft 475 kts 26°
2026-04-07 16:04 -3.56735 -30.80669 36946 ft 475 kts 26°
2026-04-07 16:05 -3.50838 -30.77673 36945 ft 475 kts 26°
2026-04-07 16:05 -3.44939 -30.74677 36957 ft 475 kts 26°
2026-04-07 16:06 -3.39037 -30.71679 36940 ft 475 kts 26°
2026-04-07 16:06 -3.33138 -30.68681 36959 ft 475 kts 26°
2026-04-07 16:07 -3.27241 -30.65686 36939 ft 475 kts 25°
2026-04-07 16:07 -3.21353 -30.62695 36957 ft 475 kts 25°
2026-04-07 16:08 -3.15459 -30.59702 36941 ft 475 kts 25°
2026-04-07 16:08 -3.09570 -30.56713 37070 ft 475 kts 25°
2026-04-07 16:09 -3.06627 -30.55219 37255 ft 474 kts 25°
2026-04-07 16:09 -3.03693 -30.53729 37427 ft 473 kts 25°
2026-04-07 16:09 -3.00761 -30.52240 37587 ft 472 kts 25°
2026-04-07 16:09 -2.97832 -30.50753 37727 ft 472 kts 25°
2026-04-07 16:10 -2.94908 -30.49269 37881 ft 471 kts 26°
2026-04-07 16:10 -2.91985 -30.47785 38021 ft 471 kts 26°
2026-04-07 16:10 -2.89103 -30.46322 38157 ft 470 kts 26°
2026-04-07 16:10 -2.86148 -30.44823 38285 ft 470 kts 26°
2026-04-07 16:11 -2.83268 -30.43361 38407 ft 470 kts 26°
2026-04-07 16:11 -2.80351 -30.41881 38527 ft 470 kts 26°
2026-04-07 16:11 -2.77440 -30.40404 38636 ft 470 kts 26°
2026-04-07 16:11 -2.74526 -30.38926 38738 ft 469 kts 25°
2026-04-07 16:12 -2.71617 -30.37450 38851 ft 469 kts 25°
2026-04-07 16:12 -2.68670 -30.35955 38931 ft 469 kts 25°
2026-04-07 16:12 -2.62888 -30.33022 38949 ft 470 kts 26°
2026-04-07 16:13 -2.57057 -30.30064 38946 ft 470 kts 26°
2026-04-07 16:13 -2.51220 -30.27104 38946 ft 470 kts 26°
2026-04-07 16:14 -2.45386 -30.24145 38947 ft 470 kts 26°
2026-04-07 16:14 -2.39547 -30.21185 38945 ft 470 kts 26°
2026-04-07 16:15 -2.33714 -30.18227 38948 ft 470 kts 26°
2026-04-07 16:15 -2.27878 -30.15268 38948 ft 471 kts 26°
2026-04-07 16:16 -2.22034 -30.12306 38947 ft 471 kts 26°
2026-04-07 16:16 -2.16185 -30.09341 38947 ft 471 kts 26°
2026-04-07 16:17 -2.10334 -30.06375 38948 ft 471 kts 26°
2026-04-07 16:17 -2.04487 -30.03412 38947 ft 471 kts 26°
2026-04-07 16:18 -1.98637 -30.00447 38947 ft 471 kts 26°
2026-04-07 16:18 -1.92684 -29.97744 38948 ft 469 kts 17°
2026-04-07 16:19 -1.86423 -29.96036 38950 ft 468 kts 13°
2026-04-07 16:19 -1.80081 -29.94536 38951 ft 468 kts 12°
2026-04-07 16:20 -1.73731 -29.93076 38953 ft 468 kts 12°
2026-04-07 16:20 -1.67379 -29.91601 38951 ft 468 kts 12°
2026-04-07 16:21 -1.61037 -29.90114 38950 ft 468 kts 12°
2026-04-07 16:21 -1.54701 -29.88625 38949 ft 467 kts 12°
2026-04-07 16:22 -1.48373 -29.87137 38950 ft 467 kts 12°
2026-04-07 16:22 -1.42038 -29.85648 38952 ft 468 kts 12°
2026-04-07 16:23 -1.35702 -29.84160 38951 ft 468 kts 12°
2026-04-07 16:23 -1.29373 -29.82673 38948 ft 467 kts 12°
2026-04-07 16:24 -1.23060 -29.81191 38952 ft 465 kts 12°
2026-04-07 16:24 -1.16767 -29.79713 38950 ft 464 kts 12°
2026-04-07 16:25 -1.10473 -29.78235 38953 ft 465 kts 12°
2026-04-07 16:25 -1.04183 -29.76757 38952 ft 465 kts 12°
2026-04-07 16:26 -0.98950 -29.75529 38955 ft 464 kts 12°
2026-04-07 16:26 -0.92661 -29.74052 38950 ft 464 kts 12°
2026-04-07 16:27 -0.86375 -29.72576 38949 ft 464 kts 12°
2026-04-07 16:27 -0.80094 -29.71101 38950 ft 464 kts 12°
2026-04-07 16:28 -0.73808 -29.69625 38949 ft 464 kts 12°
2026-04-07 16:28 -0.67521 -29.68148 38949 ft 464 kts 12°
2026-04-07 16:29 -0.61238 -29.66673 38950 ft 463 kts 12°
2026-04-07 16:29 -0.54961 -29.65199 38954 ft 463 kts 12°
2026-04-07 16:30 -0.48687 -29.63726 38954 ft 463 kts 12°
2026-04-07 16:30 -0.42414 -29.62254 38947 ft 463 kts 12°
2026-04-07 16:31 -0.36143 -29.60782 38950 ft 463 kts 12°
2026-04-07 16:31 -0.29868 -29.59308 38954 ft 463 kts 12°
2026-04-07 16:32 -0.23591 -29.57835 38951 ft 463 kts 12°
2026-04-07 16:32 -0.17355 -29.56370 38954 ft 463 kts 12°
2026-04-07 16:33 -0.11083 -29.54898 38954 ft 463 kts 12°
2026-04-07 16:33 -0.04807 -29.53425 38949 ft 463 kts 12°
2026-04-07 16:34 0.01470 -29.51951 38956 ft 463 kts 12°
2026-04-07 16:34 0.07738 -29.50480 38954 ft 462 kts 12°
2026-04-07 16:35 0.14003 -29.49009 38956 ft 462 kts 12°
2026-04-07 16:35 0.20269 -29.47538 38955 ft 462 kts 12°
2026-04-07 16:36 0.26534 -29.46067 38954 ft 462 kts 12°
2026-04-07 16:36 0.32798 -29.44596 38955 ft 462 kts 12°
2026-04-07 16:37 0.39062 -29.43126 38954 ft 462 kts 12°
2026-04-07 16:37 0.45315 -29.41658 38958 ft 462 kts 12°
2026-04-07 16:38 0.51570 -29.40189 38958 ft 462 kts 12°
2026-04-07 16:38 0.57823 -29.38721 38955 ft 462 kts 12°
2026-04-07 16:39 0.64077 -29.37253 38954 ft 462 kts 12°
2026-04-07 16:39 0.70331 -29.35785 38958 ft 461 kts 13°
2026-04-07 16:40 0.76578 -29.34318 38958 ft 461 kts 13°
2026-04-07 16:40 0.82815 -29.32853 38958 ft 461 kts 13°
2026-04-07 16:41 0.89058 -29.31387 38958 ft 461 kts 13°
2026-04-07 16:41 0.95260 -29.29931 38958 ft 461 kts 13°
2026-04-07 16:42 1.01503 -29.28465 38958 ft 461 kts 12°
2026-04-07 16:42 1.07749 -29.26998 38958 ft 461 kts 12°
2026-04-07 16:43 1.14008 -29.25555 38958 ft 462 kts 12°
2026-04-07 16:43 1.20269 -29.24126 38960 ft 461 kts 12°
2026-04-07 16:44 1.26522 -29.22699 38960 ft 461 kts 12°
2026-04-07 16:44 1.32772 -29.21269 38960 ft 461 kts 12°
2026-04-07 16:45 1.39016 -29.19840 38961 ft 460 kts 12°
2026-04-07 16:45 1.45257 -29.18411 38961 ft 460 kts 12°
2026-04-07 16:46 1.51493 -29.16983 38964 ft 460 kts 12°
2026-04-07 16:46 1.57729 -29.15555 38966 ft 460 kts 12°
2026-04-07 16:47 1.63964 -29.14128 38965 ft 460 kts 12°
2026-04-07 16:47 1.70203 -29.12699 38964 ft 460 kts 12°
2026-04-07 16:48 1.76441 -29.11271 38963 ft 460 kts 12°
2026-04-07 16:49 1.85797 -29.09128 38962 ft 460 kts 12°
2026-04-07 16:49 1.92032 -29.07700 38966 ft 460 kts 12°
2026-04-07 16:50 1.98271 -29.06271 38966 ft 460 kts 12°
2026-04-07 16:50 2.04509 -29.04842 38967 ft 460 kts 12°
2026-04-07 16:51 2.10758 -29.03410 38965 ft 461 kts 12°
2026-04-07 16:51 2.17012 -29.01977 38967 ft 461 kts 12°
2026-04-07 16:52 2.23263 -29.00545 38970 ft 461 kts 12°
2026-04-07 16:52 2.29515 -28.99112 38969 ft 461 kts 12°
2026-04-07 16:53 2.35724 -28.97689 38971 ft 461 kts 12°
2026-04-07 16:53 2.41971 -28.96257 38969 ft 461 kts 12°
2026-04-07 16:54 2.48219 -28.94826 38969 ft 461 kts 12°
2026-04-07 16:54 2.54469 -28.93393 38971 ft 461 kts 12°
2026-04-07 16:55 2.60716 -28.91961 38972 ft 461 kts 12°
2026-04-07 16:55 2.66969 -28.90527 38971 ft 461 kts 12°
2026-04-07 16:56 2.73223 -28.89092 38971 ft 461 kts 11°
2026-04-07 16:56 2.79479 -28.87657 38968 ft 461 kts 11°
2026-04-07 16:57 2.85735 -28.86223 38967 ft 461 kts 12°
2026-04-07 16:57 2.91994 -28.84788 38970 ft 461 kts 12°
2026-04-07 16:58 2.98247 -28.83353 38970 ft 461 kts 12°
2026-04-07 16:58 3.04509 -28.81916 38971 ft 461 kts 12°
2026-04-07 16:59 3.10759 -28.80441 38970 ft 462 kts 15°
2026-04-07 16:59 3.16696 -28.77981 38971 ft 463 kts 25°
2026-04-07 17:00 3.22441 -28.75052 38973 ft 464 kts 26°
2026-04-07 17:00 3.28110 -28.72051 38974 ft 464 kts 27°
2026-04-07 17:01 3.33816 -28.69034 38974 ft 464 kts 26°
2026-04-07 17:01 3.39534 -28.66031 38974 ft 465 kts 26°
2026-04-07 17:02 3.45269 -28.63029 38974 ft 465 kts 26°
2026-04-07 17:02 3.51007 -28.60025 38974 ft 465 kts 26°
2026-04-07 17:03 3.56746 -28.57021 38974 ft 466 kts 25°
2026-04-07 17:03 3.62485 -28.54016 38977 ft 466 kts 26°
2026-04-07 17:04 3.68225 -28.51008 38977 ft 465 kts 26°
2026-04-07 17:04 3.73962 -28.48002 38977 ft 465 kts 26°
2026-04-07 17:05 3.79702 -28.44993 38977 ft 466 kts 26°
2026-04-07 17:05 3.85443 -28.41985 38976 ft 466 kts 26°
2026-04-07 17:06 3.91179 -28.38978 38979 ft 465 kts 26°
2026-04-07 17:06 3.96918 -28.35970 38976 ft 465 kts 26°
2026-04-07 17:07 4.02655 -28.32961 38976 ft 466 kts 26°
2026-04-07 17:07 4.08397 -28.29950 38979 ft 466 kts 26°
2026-04-07 17:08 4.14144 -28.26935 38979 ft 466 kts 26°
2026-04-07 17:08 4.19891 -28.23920 38982 ft 466 kts 26°
2026-04-07 17:09 4.25641 -28.20902 38983 ft 466 kts 26°
2026-04-07 17:09 4.31389 -28.17886 38982 ft 466 kts 25°
2026-04-07 17:10 4.37135 -28.14870 38982 ft 466 kts 26°
2026-04-07 17:10 4.42892 -28.11847 38982 ft 468 kts 26°
2026-04-07 17:11 4.48661 -28.08819 38982 ft 468 kts 26°
2026-04-07 17:11 4.54392 -28.05809 38983 ft 468 kts 26°
2026-04-07 17:12 4.60160 -28.02779 38985 ft 468 kts 26°
2026-04-07 17:12 4.65930 -27.99747 38983 ft 468 kts 26°
2026-04-07 17:13 4.71698 -27.96716 38987 ft 468 kts 26°
2026-04-07 17:13 4.77471 -27.93683 38988 ft 469 kts 26°
2026-04-07 17:14 4.83253 -27.90644 38988 ft 469 kts 26°
2026-04-07 17:14 4.89036 -27.87603 38991 ft 469 kts 26°
2026-04-07 17:15 4.93882 -27.85054 38991 ft 469 kts 26°
2026-04-07 17:15 4.99627 -27.82033 38990 ft 469 kts 26°
2026-04-07 17:16 5.05450 -27.78970 38990 ft 469 kts 26°
2026-04-07 17:16 5.11239 -27.75924 38993 ft 470 kts 26°
2026-04-07 17:17 5.17032 -27.72875 38993 ft 470 kts 26°
2026-04-07 17:17 5.22822 -27.69827 38993 ft 470 kts 26°
2026-04-07 17:18 5.28616 -27.66777 38996 ft 470 kts 26°
2026-04-07 17:18 5.34371 -27.63746 38996 ft 470 kts 26°
2026-04-07 17:19 5.40163 -27.60696 38995 ft 470 kts 26°
2026-04-07 17:19 5.45964 -27.57640 38999 ft 472 kts 26°
2026-04-07 17:20 5.51779 -27.54576 38996 ft 472 kts 26°
2026-04-07 17:20 5.57595 -27.51510 38993 ft 472 kts 26°
2026-04-07 17:21 5.63411 -27.48444 38996 ft 472 kts 26°
2026-04-07 17:21 5.69226 -27.45378 38999 ft 472 kts 26°
2026-04-07 17:22 5.75032 -27.42316 38998 ft 471 kts 26°
2026-04-07 17:22 5.80852 -27.39245 38999 ft 473 kts 26°
2026-04-07 17:23 5.86686 -27.36167 38999 ft 474 kts 26°
2026-04-07 17:23 5.92525 -27.33085 38999 ft 474 kts 26°
2026-04-07 17:24 5.98360 -27.30005 38999 ft 474 kts 26°
2026-04-07 17:24 6.04195 -27.26924 38998 ft 474 kts 26°
2026-04-07 17:25 6.10028 -27.23843 39003 ft 474 kts 26°
2026-04-07 17:25 6.15875 -27.20754 38999 ft 475 kts 26°
2026-04-07 17:26 6.21727 -27.17662 39002 ft 475 kts 26°
2026-04-07 17:26 6.27545 -27.14587 39007 ft 475 kts 26°
2026-04-07 17:27 6.33394 -27.11494 39004 ft 475 kts 26°
2026-04-07 17:27 6.39248 -27.08398 39002 ft 475 kts 26°
2026-04-07 17:28 6.45096 -27.05305 39004 ft 475 kts 26°
2026-04-07 17:28 6.50949 -27.02208 39006 ft 475 kts 26°
2026-04-07 17:29 6.56801 -26.99110 39004 ft 475 kts 26°
2026-04-07 17:29 6.62654 -26.96012 39001 ft 475 kts 26°
2026-04-07 17:30 6.68504 -26.92914 39004 ft 475 kts 26°
2026-04-07 17:30 6.74358 -26.89813 38999 ft 475 kts 26°
2026-04-07 17:31 6.80212 -26.86711 39005 ft 476 kts 26°
2026-04-07 17:31 6.86033 -26.83626 39002 ft 476 kts 26°
2026-04-07 17:32 6.91893 -26.80519 39004 ft 476 kts 26°
2026-04-07 17:32 6.97759 -26.77409 39009 ft 476 kts 26°
2026-04-07 17:33 7.03620 -26.74300 39004 ft 476 kts 26°
2026-04-07 17:33 7.09485 -26.71188 39004 ft 476 kts 26°
2026-04-07 17:34 7.15347 -26.68077 39008 ft 477 kts 25°
2026-04-07 17:34 7.21217 -26.64961 39009 ft 477 kts 25°
2026-04-07 17:35 7.27091 -26.61842 39009 ft 477 kts 25°
2026-04-07 17:35 7.32962 -26.58723 39011 ft 477 kts 25°
2026-04-07 17:36 7.38837 -26.55601 39010 ft 477 kts 25°
2026-04-07 17:36 7.44710 -26.52480 39009 ft 477 kts 25°
2026-04-07 17:37 7.50584 -26.49357 39009 ft 478 kts 25°
2026-04-07 17:37 7.56471 -26.46226 39012 ft 479 kts 25°
2026-04-07 17:38 7.62367 -26.43089 39012 ft 479 kts 25°
2026-04-07 17:38 7.68261 -26.39951 39010 ft 479 kts 25°
2026-04-07 17:39 7.74159 -26.36812 39012 ft 479 kts 25°
2026-04-07 17:39 7.80051 -26.33674 39014 ft 479 kts 25°
2026-04-07 17:40 7.85950 -26.30531 39012 ft 480 kts 25°
2026-04-07 17:40 7.91819 -26.27404 39015 ft 481 kts 25°
2026-04-07 17:41 7.97732 -26.24252 39015 ft 481 kts 25°
2026-04-07 17:41 8.03643 -26.21101 39017 ft 480 kts 25°
2026-04-07 17:42 8.09550 -26.17950 39015 ft 480 kts 25°
2026-04-07 17:42 8.15458 -26.14797 39012 ft 480 kts 25°
2026-04-07 17:43 8.21369 -26.11642 39015 ft 481 kts 25°
2026-04-07 17:43 8.27289 -26.08482 39015 ft 481 kts 25°
2026-04-07 17:44 8.33210 -26.05320 39015 ft 481 kts 25°
2026-04-07 17:44 8.39132 -26.02156 39015 ft 481 kts 25°
2026-04-07 17:45 8.45050 -25.98992 39015 ft 481 kts 25°
2026-04-07 17:45 8.50969 -25.95827 39018 ft 481 kts 25°
2026-04-07 17:46 8.56852 -25.92680 39018 ft 482 kts 25°
2026-04-07 17:46 8.62781 -25.89509 39018 ft 482 kts 25°
2026-04-07 17:47 8.68715 -25.86332 39018 ft 482 kts 25°
2026-04-07 17:47 8.74648 -25.83155 39015 ft 482 kts 25°
2026-04-07 17:48 8.80577 -25.79979 39018 ft 482 kts 25°
2026-04-07 17:48 8.86510 -25.76800 39020 ft 482 kts 25°
2026-04-07 17:49 8.92446 -25.73619 39018 ft 483 kts 24°
2026-04-07 17:49 8.98385 -25.70434 39015 ft 483 kts 24°
2026-04-07 17:50 9.04329 -25.67245 39021 ft 483 kts 24°
2026-04-07 17:50 9.10271 -25.64056 39023 ft 483 kts 24°
2026-04-07 17:51 9.16212 -25.60867 39023 ft 484 kts 24°
2026-04-07 17:51 9.22152 -25.57677 39023 ft 483 kts 24°
2026-04-07 17:52 9.28088 -25.54487 39023 ft 483 kts 24°
2026-04-07 17:52 9.34027 -25.51296 39023 ft 483 kts 24°
2026-04-07 17:53 9.39927 -25.48124 39023 ft 483 kts 24°
2026-04-07 17:53 9.48836 -25.43332 39026 ft 483 kts 24°
2026-04-07 17:54 9.54773 -25.40137 39026 ft 483 kts 24°
2026-04-07 17:54 9.60712 -25.36939 39029 ft 484 kts 24°
2026-04-07 17:55 9.66662 -25.33735 39025 ft 484 kts 24°
2026-04-07 17:55 9.72615 -25.30527 39028 ft 484 kts 24°
2026-04-07 17:56 9.78567 -25.27318 39024 ft 484 kts 24°
2026-04-07 17:56 9.84516 -25.24110 39025 ft 484 kts 24°
2026-04-07 17:57 9.90467 -25.20899 39024 ft 484 kts 24°
2026-04-07 17:57 9.96419 -25.17687 39022 ft 484 kts 24°
2026-04-07 17:58 10.02370 -25.14474 39025 ft 484 kts 24°
2026-04-07 17:58 10.08318 -25.11261 39029 ft 484 kts 24°
2026-04-07 17:59 10.14267 -25.08046 39030 ft 484 kts 24°
2026-04-07 17:59 10.20218 -25.04828 39034 ft 484 kts 24°
2026-04-07 18:00 10.26168 -25.01611 39031 ft 484 kts 24°
2026-04-07 18:00 10.32081 -24.98412 39031 ft 485 kts 24°
2026-04-07 18:01 10.38039 -24.95187 39030 ft 485 kts 24°
2026-04-07 18:01 10.43998 -24.91959 39030 ft 485 kts 24°
2026-04-07 18:02 10.49958 -24.88729 39031 ft 485 kts 24°
2026-04-07 18:02 10.55918 -24.85498 39036 ft 485 kts 24°
2026-04-07 18:03 10.61876 -24.82267 39033 ft 485 kts 24°
2026-04-07 18:03 10.67838 -24.79033 39033 ft 486 kts 23°
2026-04-07 18:04 10.73810 -24.75792 39034 ft 487 kts 23°
2026-04-07 18:04 10.78772 -24.73098 39033 ft 487 kts 23°
2026-04-07 18:05 10.85750 -24.69306 39035 ft 486 kts 24°
2026-04-07 18:05 10.90711 -24.66610 39039 ft 486 kts 24°
2026-04-07 18:06 10.96677 -24.63366 39037 ft 486 kts 23°
2026-04-07 18:06 11.02647 -24.60119 39038 ft 487 kts 23°
2026-04-07 18:07 11.08623 -24.56867 39038 ft 487 kts 23°
2026-04-07 18:07 11.14604 -24.53611 39035 ft 487 kts 23°
2026-04-07 18:08 11.20581 -24.50355 39037 ft 487 kts 23°
2026-04-07 18:08 11.26559 -24.47097 39036 ft 487 kts 23°
2026-04-07 18:09 11.32534 -24.43839 39039 ft 487 kts 23°
2026-04-07 18:09 11.38510 -24.40578 39037 ft 486 kts 23°
2026-04-07 18:10 11.44473 -24.37324 39035 ft 486 kts 23°
2026-04-07 18:10 11.50444 -24.34065 39037 ft 487 kts 23°
2026-04-07 18:11 11.56422 -24.30799 39039 ft 487 kts 23°
2026-04-07 18:11 11.62396 -24.27533 39041 ft 487 kts 23°
2026-04-07 18:12 11.68369 -24.24267 39046 ft 487 kts 23°
2026-04-07 18:12 11.74341 -24.21000 39039 ft 487 kts 23°
2026-04-07 18:13 11.80306 -24.17735 39040 ft 487 kts 23°
2026-04-07 18:13 11.86229 -24.14491 39041 ft 487 kts 23°
2026-04-07 18:14 11.92195 -24.11223 39042 ft 487 kts 23°
2026-04-07 18:14 11.98162 -24.07952 39043 ft 486 kts 23°
2026-04-07 18:15 12.04124 -24.04682 39051 ft 487 kts 22°
2026-04-07 18:15 12.10100 -24.01402 39048 ft 487 kts 22°
2026-04-07 18:16 12.16072 -23.98124 39049 ft 487 kts 22°
2026-04-07 18:16 12.22047 -23.94842 39047 ft 487 kts 22°
2026-04-07 18:17 12.28020 -23.91560 39034 ft 488 kts 22°
2026-04-07 18:17 12.33994 -23.88275 39044 ft 487 kts 22°
2026-04-07 18:18 12.39967 -23.84988 39039 ft 487 kts 22°
2026-04-07 18:18 12.45938 -23.81701 39052 ft 487 kts 22°
2026-04-07 18:19 12.51909 -23.78413 39049 ft 487 kts 22°
2026-04-07 18:19 12.57879 -23.75124 39043 ft 487 kts 22°
2026-04-07 18:20 12.63858 -23.71828 39043 ft 488 kts 22°
2026-04-07 18:20 12.69836 -23.68530 39048 ft 488 kts 22°
2026-04-07 18:21 12.75777 -23.65251 39050 ft 488 kts 22°
2026-04-07 18:21 12.81758 -23.61948 39056 ft 488 kts 22°
2026-04-07 18:22 12.87737 -23.58645 39049 ft 488 kts 22°
2026-04-07 18:22 12.93717 -23.55339 39051 ft 488 kts 22°
2026-04-07 18:23 12.99698 -23.52030 39055 ft 488 kts 22°
2026-04-07 18:23 13.05678 -23.48721 39051 ft 488 kts 22°
2026-04-07 18:24 13.11660 -23.45408 39060 ft 489 kts 22°
2026-04-07 18:24 13.17640 -23.42095 39056 ft 489 kts 22°
2026-04-07 18:25 13.23627 -23.38777 39055 ft 489 kts 22°
2026-04-07 18:25 13.29616 -23.35455 39053 ft 489 kts 22°
2026-04-07 18:26 13.35609 -23.32129 39053 ft 489 kts 22°
2026-04-07 18:26 13.41599 -23.28803 39059 ft 489 kts 22°
2026-04-07 18:27 13.47588 -23.25475 39059 ft 489 kts 22°
2026-04-07 18:27 13.53533 -23.22170 39062 ft 489 kts 22°
2026-04-07 18:28 13.59522 -23.18840 39062 ft 489 kts 22°
2026-04-07 18:28 13.65511 -23.15506 39061 ft 489 kts 22°
2026-04-07 18:29 13.71499 -23.12171 39062 ft 489 kts 22°
2026-04-07 18:29 13.77488 -23.08834 39069 ft 490 kts 22°
2026-04-07 18:30 13.83485 -23.05491 39064 ft 490 kts 22°
2026-04-07 18:30 13.89487 -23.02143 39062 ft 491 kts 22°
2026-04-07 18:31 13.95486 -22.98794 39064 ft 491 kts 22°
2026-04-07 18:31 14.01489 -22.95440 39064 ft 491 kts 22°
2026-04-07 18:32 14.07489 -22.92087 39067 ft 491 kts 22°
2026-04-07 18:32 14.13489 -22.88732 39087 ft 491 kts 22°
2026-04-07 18:33 14.19494 -22.85372 39069 ft 491 kts 22°
2026-04-07 18:33 14.25504 -22.82007 39069 ft 492 kts 22°
2026-04-07 18:34 14.31518 -22.78638 39066 ft 492 kts 22°
2026-04-07 18:34 14.37526 -22.75270 39071 ft 492 kts 22°
2026-04-07 18:35 14.43545 -22.71894 39073 ft 492 kts 22°
2026-04-07 18:35 14.49562 -22.68516 39091 ft 492 kts 22°
2026-04-07 18:36 14.55579 -22.65137 39077 ft 493 kts 22°
2026-04-07 18:36 14.61607 -22.61750 39078 ft 493 kts 22°
2026-04-07 18:37 14.67629 -22.58363 39080 ft 493 kts 22°
2026-04-07 18:37 14.73616 -22.54994 39074 ft 493 kts 22°
2026-04-07 18:38 14.79643 -22.51600 39081 ft 493 kts 22°
2026-04-07 18:38 14.85664 -22.48208 39077 ft 493 kts 22°
2026-04-07 18:39 14.91694 -22.44809 39076 ft 494 kts 22°
2026-04-07 18:39 14.97732 -22.41403 39091 ft 494 kts 22°
2026-04-07 18:40 15.03772 -22.37994 39075 ft 494 kts 22°
2026-04-07 18:40 15.09811 -22.34582 39091 ft 494 kts 22°
2026-04-07 18:41 15.15850 -22.31168 39077 ft 495 kts 22°
2026-04-07 18:41 15.21894 -22.27750 39089 ft 495 kts 22°
2026-04-07 18:42 15.27946 -22.24325 39086 ft 496 kts 22°
2026-04-07 18:42 15.33999 -22.20897 39091 ft 496 kts 22°
2026-04-07 18:43 15.40057 -22.17464 39088 ft 496 kts 22°
2026-04-07 18:43 15.46110 -22.14030 39089 ft 496 kts 22°
2026-04-07 18:44 15.52167 -22.10594 39091 ft 496 kts 22°
2026-04-07 18:44 15.58224 -22.07154 39094 ft 497 kts 22°
2026-04-07 18:45 15.64299 -22.03703 39095 ft 498 kts 22°
2026-04-07 18:45 15.70375 -22.00247 39096 ft 498 kts 22°
2026-04-07 18:46 15.76448 -21.96790 39098 ft 498 kts 22°
2026-04-07 18:46 15.82479 -21.93356 39095 ft 498 kts 22°
2026-04-07 18:47 15.88557 -21.89893 39114 ft 498 kts 21°
2026-04-07 18:47 15.94632 -21.86429 39100 ft 499 kts 21°
2026-04-07 18:48 16.00719 -21.82957 39099 ft 499 kts 21°
2026-04-07 18:48 16.06806 -21.79481 39094 ft 499 kts 21°
2026-04-07 18:49 16.12894 -21.76002 39108 ft 500 kts 21°
2026-04-07 18:49 16.18982 -21.72521 39102 ft 500 kts 21°
2026-04-07 18:50 16.25076 -21.69033 39114 ft 500 kts 21°
2026-04-07 18:50 16.31172 -21.65542 39108 ft 500 kts 21°
2026-04-07 18:51 16.37270 -21.62047 39108 ft 500 kts 21°
2026-04-07 18:51 16.43370 -21.58550 39105 ft 500 kts 21°
2026-04-07 18:52 16.49426 -21.55074 39108 ft 500 kts 21°
2026-04-07 18:52 16.55520 -21.51574 39108 ft 500 kts 21°
2026-04-07 18:53 16.61616 -21.48071 39113 ft 500 kts 21°
2026-04-07 18:53 16.67708 -21.44567 39110 ft 500 kts 21°
2026-04-07 18:54 16.73806 -21.41058 39113 ft 500 kts 21°
2026-04-07 18:54 16.79899 -21.37549 39113 ft 501 kts 21°
2026-04-07 18:55 16.84969 -21.34627 39113 ft 501 kts 21°
2026-04-07 18:55 16.91064 -21.31112 39113 ft 501 kts 21°
2026-04-07 18:56 16.97161 -21.27593 39113 ft 501 kts 21°
2026-04-07 18:56 17.03261 -21.24069 39116 ft 501 kts 21°
2026-04-07 18:57 17.09355 -21.20546 39116 ft 500 kts 21°
2026-04-07 18:57 17.15446 -21.17022 39116 ft 500 kts 21°
2026-04-07 18:58 17.21538 -21.13496 39117 ft 501 kts 21°
2026-04-07 18:58 17.27637 -21.09963 39135 ft 502 kts 21°
2026-04-07 18:59 17.33733 -21.06428 39116 ft 500 kts 21°
2026-04-07 18:59 17.39819 -21.02895 39118 ft 500 kts 21°
2026-04-07 19:00 17.45903 -20.99363 39119 ft 500 kts 21°
2026-04-07 19:00 17.51986 -20.95828 39116 ft 500 kts 21°
2026-04-07 19:01 17.58071 -20.92289 39118 ft 500 kts 21°
2026-04-07 19:02 17.67193 -20.86979 39116 ft 500 kts 21°
2026-04-07 19:02 17.73281 -20.83432 39123 ft 500 kts 21°
2026-04-07 19:03 17.79366 -20.79883 39125 ft 501 kts 21°
2026-04-07 19:03 17.85461 -20.76326 39123 ft 501 kts 21°
2026-04-07 19:04 17.91557 -20.72765 39121 ft 502 kts 21°
2026-04-07 19:04 17.97656 -20.69199 39129 ft 502 kts 21°
2026-04-07 19:05 18.03756 -20.65631 39120 ft 502 kts 21°
2026-04-07 19:05 18.09823 -20.62079 39133 ft 503 kts 21°
2026-04-07 19:06 18.15930 -20.58500 39131 ft 503 kts 21°
2026-04-07 19:06 18.22037 -20.54918 39131 ft 503 kts 21°
2026-04-07 19:07 18.28143 -20.51334 39133 ft 503 kts 21°
2026-04-07 19:07 18.34250 -20.47746 39142 ft 503 kts 20°
2026-04-07 19:08 18.40360 -20.44155 39129 ft 503 kts 20°
2026-04-07 19:08 18.46477 -20.40557 39130 ft 504 kts 20°
2026-04-07 19:09 18.52596 -20.36953 39132 ft 504 kts 20°
2026-04-07 19:09 18.58716 -20.33346 39132 ft 504 kts 20°
2026-04-07 19:10 18.64834 -20.29738 39132 ft 504 kts 20°
2026-04-07 19:10 18.70955 -20.26125 39140 ft 505 kts 20°
2026-04-07 19:11 18.77087 -20.22503 39143 ft 505 kts 20°
2026-04-07 19:11 18.83220 -20.18876 39129 ft 505 kts 20°
2026-04-07 19:12 18.89357 -20.15244 39139 ft 505 kts 20°
2026-04-07 19:12 18.95491 -20.11611 39135 ft 506 kts 20°
2026-04-07 19:13 19.01633 -20.07970 39153 ft 506 kts 20°
2026-04-07 19:13 19.07734 -20.04349 39141 ft 506 kts 20°
2026-04-07 19:14 19.13878 -20.00701 39140 ft 506 kts 20°
2026-04-07 19:14 19.20020 -19.97050 39139 ft 507 kts 20°
2026-04-07 19:15 19.26166 -19.93395 39141 ft 507 kts 20°
2026-04-07 19:15 19.32311 -19.89736 39144 ft 507 kts 20°
2026-04-07 19:16 19.38455 -19.86075 39146 ft 507 kts 19°
2026-04-07 19:16 19.44598 -19.82410 39143 ft 507 kts 19°
2026-04-07 19:17 19.50748 -19.78740 39142 ft 507 kts 19°
2026-04-07 19:17 19.56905 -19.75063 39146 ft 508 kts 19°
2026-04-07 19:18 19.63074 -19.71375 39146 ft 510 kts 19°
2026-04-07 19:18 19.69258 -19.67673 39186 ft 511 kts 19°
2026-04-07 19:19 19.75448 -19.63962 39146 ft 510 kts 19°
2026-04-07 19:19 19.81625 -19.60257 39146 ft 510 kts 19°
2026-04-07 19:20 19.87806 -19.56547 39149 ft 510 kts 19°
2026-04-07 19:20 19.93987 -19.52834 39152 ft 510 kts 19°
2026-04-07 19:21 20.00166 -19.49118 39151 ft 510 kts 19°
2026-04-07 19:21 20.06345 -19.45400 39152 ft 510 kts 20°
2026-04-07 19:22 20.12511 -19.41684 39152 ft 510 kts 20°
2026-04-07 19:22 20.18685 -19.37961 39153 ft 510 kts 20°
2026-04-07 19:23 20.24856 -19.34237 39153 ft 510 kts 20°
2026-04-07 19:23 20.31025 -19.30511 39150 ft 510 kts 20°
2026-04-07 19:24 20.37196 -19.26780 39151 ft 510 kts 20°
2026-04-07 19:24 20.43367 -19.23046 39154 ft 510 kts 20°
2026-04-07 19:25 20.49537 -19.19308 39159 ft 510 kts 20°
2026-04-07 19:25 20.55702 -19.15569 39156 ft 510 kts 20°
2026-04-07 19:26 20.61870 -19.11825 39165 ft 510 kts 20°
2026-04-07 19:26 20.68043 -19.08076 39157 ft 511 kts 20°
2026-04-07 19:27 20.74177 -19.04347 39163 ft 510 kts 20°
2026-04-07 19:27 20.80334 -19.00598 39159 ft 509 kts 20°
2026-04-07 19:28 20.86487 -18.96849 39156 ft 509 kts 20°
2026-04-07 19:28 20.92636 -18.93101 39156 ft 509 kts 20°
2026-04-07 19:29 20.98790 -18.89345 39159 ft 509 kts 20°
2026-04-07 19:29 21.04944 -18.85585 39192 ft 509 kts 20°
2026-04-07 19:30 21.11077 -18.81832 39161 ft 506 kts 21°
2026-04-07 19:30 21.17182 -18.78094 39160 ft 505 kts 21°
2026-04-07 19:31 21.23284 -18.74357 39160 ft 505 kts 21°
2026-04-07 19:31 21.29384 -18.70618 39160 ft 505 kts 21°
2026-04-07 19:32 21.35482 -18.66874 39159 ft 505 kts 21°
2026-04-07 19:32 21.41576 -18.63129 39164 ft 504 kts 22°
2026-04-07 19:33 21.47595 -18.59422 39163 ft 501 kts 22°
2026-04-07 19:33 21.53641 -18.55699 39166 ft 501 kts 22°
2026-04-07 19:34 21.59682 -18.51978 39167 ft 501 kts 22°
2026-04-07 19:34 21.65723 -18.48252 39169 ft 501 kts 22°
2026-04-07 19:35 21.71766 -18.44520 39170 ft 501 kts 22°
2026-04-07 19:35 21.77799 -18.40790 39167 ft 499 kts 23°
2026-04-07 19:36 21.83801 -18.37074 39167 ft 497 kts 23°
2026-04-07 19:36 21.89798 -18.33360 39170 ft 497 kts 23°
2026-04-07 19:37 21.95798 -18.29641 39168 ft 497 kts 23°
2026-04-07 19:37 22.01794 -18.25920 39166 ft 497 kts 23°
2026-04-07 19:38 22.07788 -18.22197 39176 ft 497 kts 24°
2026-04-07 19:38 22.13767 -18.18477 39169 ft 495 kts 24°
2026-04-07 19:39 22.19728 -18.14766 39170 ft 495 kts 24°
2026-04-07 19:39 22.25687 -18.11055 39168 ft 495 kts 24°
2026-04-07 19:40 22.31645 -18.07340 39172 ft 495 kts 24°
2026-04-07 19:40 22.37565 -18.03644 39175 ft 495 kts 24°
2026-04-07 19:41 22.43523 -17.99921 39172 ft 494 kts 24°
2026-04-07 19:41 22.49466 -17.96203 39171 ft 493 kts 24°
2026-04-07 19:42 22.55407 -17.92483 39173 ft 493 kts 24°
2026-04-07 19:42 22.61346 -17.88761 39177 ft 493 kts 24°
2026-04-07 19:43 22.67282 -17.85037 39173 ft 493 kts 24°
2026-04-07 19:43 22.73219 -17.81308 39200 ft 493 kts 24°
2026-04-07 19:44 22.78142 -17.78213 39180 ft 491 kts 24°
2026-04-07 19:44 22.84051 -17.74493 39177 ft 491 kts 24°
2026-04-07 19:45 22.89958 -17.70774 39175 ft 492 kts 24°
2026-04-07 19:45 22.95874 -17.67045 39178 ft 492 kts 24°
2026-04-07 19:46 23.01788 -17.63312 39181 ft 492 kts 24°
2026-04-07 19:46 23.07705 -17.59573 39179 ft 492 kts 24°
2026-04-07 19:47 23.13608 -17.55839 39181 ft 491 kts 24°
2026-04-07 19:47 23.19501 -17.52108 39181 ft 490 kts 24°
2026-04-07 19:48 23.25398 -17.48371 39181 ft 490 kts 24°
2026-04-07 19:48 23.31292 -17.44632 39181 ft 490 kts 24°
2026-04-07 19:49 23.37180 -17.40892 39182 ft 490 kts 24°
2026-04-07 19:49 23.43075 -17.37145 39187 ft 490 kts 24°
2026-04-07 19:50 23.48956 -17.33402 39181 ft 490 kts 25°
2026-04-07 19:50 23.54839 -17.29654 39188 ft 490 kts 25°
2026-04-07 19:51 23.60720 -17.25904 39187 ft 490 kts 25°
2026-04-07 19:51 23.66599 -17.22151 39187 ft 490 kts 25°
2026-04-07 19:52 23.72477 -17.18395 39185 ft 490 kts 25°
2026-04-07 19:52 23.78354 -17.14634 39185 ft 490 kts 25°
2026-04-07 19:53 23.84195 -17.10893 39190 ft 490 kts 25°
2026-04-07 19:53 23.90072 -17.07126 39189 ft 490 kts 25°
2026-04-07 19:54 23.95946 -17.03355 39188 ft 490 kts 25°
2026-04-07 19:54 24.01828 -16.99577 39186 ft 491 kts 25°
2026-04-07 19:55 24.07712 -16.95793 39196 ft 490 kts 25°
2026-04-07 19:55 24.13577 -16.92015 39189 ft 489 kts 25°
2026-04-07 19:56 24.19435 -16.88239 39192 ft 489 kts 25°
2026-04-07 19:56 24.25295 -16.84458 39192 ft 489 kts 25°
2026-04-07 19:57 24.31153 -16.80675 39192 ft 489 kts 25°
2026-04-07 19:57 24.37013 -16.76886 39190 ft 489 kts 25°
2026-04-07 19:58 24.42857 -16.73101 39195 ft 486 kts 26°
2026-04-07 19:58 24.48668 -16.69334 39199 ft 484 kts 25°
2026-04-07 19:59 24.54482 -16.65564 39196 ft 486 kts 25°
2026-04-07 19:59 24.60312 -16.61780 39195 ft 487 kts 25°
2026-04-07 20:00 24.66144 -16.57988 39199 ft 487 kts 25°
2026-04-07 20:00 24.74875 -16.52302 39187 ft 483 kts 26°
2026-04-07 20:01 24.80616 -16.48556 39193 ft 478 kts 26°
2026-04-07 20:01 24.86335 -16.44824 39194 ft 478 kts 26°
2026-04-07 20:02 24.92056 -16.41089 39195 ft 478 kts 26°
2026-04-07 20:02 24.97864 -16.37577 39196 ft 473 kts 18°
2026-04-07 20:03 25.04128 -16.35839 39209 ft 460 kts
2026-04-07 20:03 25.10481 -16.35402 39196 ft 455 kts 358°
2026-04-07 20:04 25.16800 -16.35212 39196 ft 454 kts 357°
2026-04-07 20:04 25.23113 -16.35038 39203 ft 454 kts 357°
2026-04-07 20:05 25.29390 -16.34834 39206 ft 454 kts 358°
2026-04-07 20:05 25.35706 -16.34611 39213 ft 454 kts 358°
2026-04-07 20:06 25.42006 -16.34380 39208 ft 452 kts 358°
2026-04-07 20:06 25.48289 -16.34152 39206 ft 452 kts 358°
2026-04-07 20:07 25.54576 -16.33925 39206 ft 452 kts 358°
2026-04-07 20:07 25.60857 -16.33699 39208 ft 452 kts 358°
2026-04-07 20:08 25.67139 -16.33473 39209 ft 451 kts 358°
2026-04-07 20:08 25.73390 -16.33246 39211 ft 449 kts 358°
2026-04-07 20:09 25.79638 -16.33021 39211 ft 449 kts 358°
2026-04-07 20:09 25.85887 -16.32795 39214 ft 449 kts 358°
2026-04-07 20:10 25.92136 -16.32569 39214 ft 449 kts 358°
2026-04-07 20:10 25.98388 -16.32343 39219 ft 450 kts 358°
2026-04-07 20:11 26.04645 -16.32116 39218 ft 450 kts 358°
2026-04-07 20:11 26.10860 -16.31890 39219 ft 450 kts 358°
2026-04-07 20:12 26.17124 -16.31662 39223 ft 450 kts 358°
2026-04-07 20:12 26.23387 -16.31434 39227 ft 450 kts 358°
2026-04-07 20:13 26.29657 -16.31206 39222 ft 451 kts 358°
2026-04-07 20:13 26.35930 -16.30977 39221 ft 451 kts 358°
2026-04-07 20:14 26.42208 -16.30747 39225 ft 451 kts 358°
2026-04-07 20:14 26.48485 -16.30518 39227 ft 451 kts 358°
2026-04-07 20:15 26.54767 -16.30288 39232 ft 452 kts 358°
2026-04-07 20:15 26.61058 -16.30058 39224 ft 453 kts 358°
2026-04-07 20:16 26.67356 -16.29827 39224 ft 453 kts 358°
2026-04-07 20:16 26.73654 -16.29595 39225 ft 453 kts 358°
2026-04-07 20:17 26.79951 -16.29363 39230 ft 453 kts 358°
2026-04-07 20:17 26.86250 -16.28924 39227 ft 457 kts
2026-04-07 20:18 26.92341 -16.26750 39229 ft 466 kts 24°
2026-04-07 20:18 26.97962 -16.23047 39233 ft 470 kts 28°
2026-04-07 20:19 27.03456 -16.19048 39228 ft 471 kts 29°
2026-04-07 20:19 27.08941 -16.15016 39229 ft 471 kts 29°
2026-04-07 20:20 27.14444 -16.11010 39232 ft 471 kts 28°
2026-04-07 20:20 27.19963 -16.07015 39227 ft 472 kts 28°
2026-04-07 20:21 27.25488 -16.03019 39230 ft 472 kts 28°
2026-04-07 20:21 27.30976 -15.99042 39237 ft 472 kts 28°
2026-04-07 20:22 27.36496 -15.95036 39227 ft 473 kts 28°
2026-04-07 20:22 27.42022 -15.91020 39222 ft 473 kts 28°
2026-04-07 20:23 27.47545 -15.87003 39224 ft 473 kts 29°
2026-04-07 20:23 27.53075 -15.82975 39221 ft 473 kts 29°
2026-04-07 20:24 27.58604 -15.78942 39229 ft 473 kts 29°
2026-04-07 20:24 27.64129 -15.74907 39221 ft 473 kts 29°
2026-04-07 20:25 27.69659 -15.70864 39221 ft 473 kts 29°
2026-04-07 20:25 27.75184 -15.66821 39215 ft 473 kts 29°
2026-04-07 20:26 27.80705 -15.62775 39223 ft 473 kts 29°
2026-04-07 20:26 27.86226 -15.58722 39213 ft 474 kts 29°
2026-04-07 20:27 27.91753 -15.54662 39215 ft 474 kts 29°
2026-04-07 20:27 27.97280 -15.50598 39212 ft 474 kts 29°
2026-04-07 20:28 28.02769 -15.46555 39213 ft 474 kts 29°
2026-04-07 20:28 28.08293 -15.42479 39224 ft 474 kts 29°
2026-04-07 20:29 28.13800 -15.38396 39222 ft 472 kts 29°
2026-04-07 20:29 28.19295 -15.34311 39224 ft 472 kts 29°
2026-04-07 20:30 28.24785 -15.30225 39225 ft 472 kts 29°
2026-04-07 20:30 28.30278 -15.26133 39227 ft 472 kts 29°
2026-04-07 20:31 28.35767 -15.22039 39211 ft 472 kts 29°
2026-04-07 20:31 28.41255 -15.17941 39233 ft 472 kts 29°
2026-04-07 20:32 28.46755 -15.13830 39236 ft 473 kts 29°
2026-04-07 20:32 28.51327 -15.10408 39235 ft 474 kts 29°
2026-04-07 20:33 28.56830 -15.06284 39238 ft 474 kts 29°
2026-04-07 20:33 28.62329 -15.02157 39239 ft 474 kts 29°
2026-04-07 20:34 28.67833 -14.98021 39233 ft 474 kts 29°
2026-04-07 20:34 28.73332 -14.93883 39250 ft 472 kts 29°
2026-04-07 20:35 28.78794 -14.89767 39237 ft 470 kts 29°
2026-04-07 20:35 28.84251 -14.85652 39237 ft 470 kts 29°
2026-04-07 20:36 28.89712 -14.81529 39235 ft 470 kts 29°
2026-04-07 20:36 28.95169 -14.77403 39235 ft 471 kts 29°
2026-04-07 20:37 29.00628 -14.73269 39235 ft 471 kts 29°
2026-04-07 20:37 29.06031 -14.69171 39241 ft 467 kts 29°
2026-04-07 20:38 29.11428 -14.65072 39240 ft 465 kts 29°
2026-04-07 20:38 29.16818 -14.60977 39236 ft 465 kts 29°
2026-04-07 20:39 29.22207 -14.56878 39250 ft 465 kts 29°
2026-04-07 20:39 29.27606 -14.52765 39245 ft 467 kts 29°
2026-04-07 20:40 29.33017 -14.48636 39239 ft 467 kts 28°
2026-04-07 20:40 29.38405 -14.44517 39229 ft 464 kts 28°
2026-04-07 20:41 29.43766 -14.40415 39230 ft 463 kts 28°
2026-04-07 20:41 29.49123 -14.36313 39233 ft 463 kts 28°
2026-04-07 20:42 29.54482 -14.32204 39230 ft 463 kts 28°
2026-04-07 20:42 29.59835 -14.28094 39227 ft 463 kts 28°
2026-04-07 20:43 29.65190 -14.23976 39234 ft 462 kts 28°
2026-04-07 20:43 29.70518 -14.19871 39229 ft 461 kts 28°
2026-04-07 20:44 29.75866 -14.15751 39225 ft 463 kts 28°
2026-04-07 20:44 29.81225 -14.11614 39224 ft 464 kts 29°
2026-04-07 20:45 29.86586 -14.07470 39225 ft 464 kts 29°
2026-04-07 20:45 29.91943 -14.03323 39225 ft 464 kts 29°
2026-04-07 20:46 29.97298 -13.99173 39224 ft 464 kts 29°
2026-04-07 20:46 30.02652 -13.95019 39224 ft 464 kts 29°
2026-04-07 20:47 30.08006 -13.90858 39225 ft 464 kts 29°
2026-04-07 20:47 30.13356 -13.86695 39222 ft 464 kts 29°
2026-04-07 20:48 30.18682 -13.82548 39223 ft 467 kts 29°
2026-04-07 20:48 30.24096 -13.78326 39237 ft 470 kts 29°
2026-04-07 20:49 30.29477 -13.74117 39224 ft 465 kts 29°
2026-04-07 20:49 30.34830 -13.69928 39224 ft 464 kts 29°
2026-04-07 20:50 30.40182 -13.65738 39224 ft 464 kts 29°
2026-04-07 20:50 30.45530 -13.61544 39219 ft 464 kts 29°
2026-04-07 20:51 30.50877 -13.57344 39219 ft 464 kts 29°
2026-04-07 20:51 30.56206 -13.53119 39225 ft 463 kts 28°
2026-04-07 20:52 30.61492 -13.48904 39224 ft 460 kts 28°
2026-04-07 20:52 30.66787 -13.44684 39222 ft 464 kts 28°
2026-04-07 20:53 30.72116 -13.40433 39222 ft 465 kts 29°
2026-04-07 20:53 30.77449 -13.36170 39222 ft 465 kts 29°
2026-04-07 20:54 30.82742 -13.31934 39219 ft 465 kts 29°
2026-04-07 20:54 30.88090 -13.27646 39212 ft 462 kts 28°
2026-04-07 20:55 30.93332 -13.23447 39217 ft 460 kts 28°
2026-04-07 20:55 30.98617 -13.19249 39217 ft 460 kts 28°
2026-04-07 20:56 31.03906 -13.15052 39215 ft 460 kts 28°
2026-04-07 20:56 31.09191 -13.10848 39222 ft 461 kts 28°
2026-04-07 20:57 31.14493 -13.06621 39243 ft 462 kts 27°
2026-04-07 20:57 31.19781 -13.02395 39213 ft 459 kts 27°
2026-04-07 20:58 31.25048 -12.98182 39214 ft 459 kts 27°
2026-04-07 20:58 31.30315 -12.93966 39214 ft 459 kts 27°
2026-04-07 20:59 31.35581 -12.89744 39214 ft 459 kts 27°
2026-04-07 20:59 31.40845 -12.85520 39216 ft 459 kts 27°
2026-04-07 21:00 31.48700 -12.79202 39220 ft 459 kts 27°
2026-04-07 21:01 31.53996 -12.74934 39221 ft 460 kts 27°
2026-04-07 21:01 31.59248 -12.70698 39206 ft 462 kts 27°
2026-04-07 21:02 31.64541 -12.66421 39217 ft 462 kts 27°
2026-04-07 21:02 31.69837 -12.62134 39209 ft 462 kts 28°
2026-04-07 21:03 31.75133 -12.57843 39213 ft 463 kts 27°
2026-04-07 21:03 31.80443 -12.53535 39210 ft 464 kts 27°
2026-04-07 21:04 31.85756 -12.49218 39209 ft 464 kts 27°
2026-04-07 21:04 31.91065 -12.44898 39210 ft 464 kts 27°
2026-04-07 21:05 31.96377 -12.40569 39222 ft 464 kts 28°
2026-04-07 21:05 32.01708 -12.36230 39233 ft 468 kts 28°
2026-04-07 21:06 32.07089 -12.31855 39203 ft 471 kts 28°
2026-04-07 21:06 32.12481 -12.27459 39203 ft 471 kts 28°
2026-04-07 21:07 32.17869 -12.23059 39203 ft 471 kts 28°
2026-04-07 21:07 32.23258 -12.18652 39200 ft 471 kts 28°
2026-04-07 21:08 32.28646 -12.14240 39200 ft 471 kts 28°
2026-04-07 21:08 32.34037 -12.09819 39200 ft 472 kts 28°
2026-04-07 21:09 32.39438 -12.05385 39198 ft 473 kts 28°
2026-04-07 21:09 32.44855 -12.00931 39197 ft 475 kts 29°
2026-04-07 21:10 32.50299 -11.96449 39195 ft 478 kts 29°
2026-04-07 21:10 32.55752 -11.91949 39193 ft 478 kts 29°
2026-04-07 21:11 32.61208 -11.87441 39212 ft 478 kts 29°
2026-04-07 21:11 32.66647 -11.82942 39197 ft 481 kts 29°
2026-04-07 21:12 32.72135 -11.78394 39185 ft 481 kts 29°
2026-04-07 21:12 32.77626 -11.73836 39183 ft 481 kts 29°
2026-04-07 21:13 32.83113 -11.69274 39183 ft 481 kts 29°
2026-04-07 21:13 32.88600 -11.64706 39182 ft 481 kts 29°
2026-04-07 21:14 32.94081 -11.60137 39193 ft 481 kts 29°
2026-04-07 21:14 32.99564 -11.55558 39177 ft 481 kts 29°
2026-04-07 21:15 33.05045 -11.50974 39178 ft 481 kts 29°
2026-04-07 21:15 33.10522 -11.46386 39178 ft 481 kts 29°
2026-04-07 21:16 33.16002 -11.41789 39197 ft 481 kts 29°
2026-04-07 21:16 33.21447 -11.37198 39179 ft 484 kts 30°
2026-04-07 21:17 33.26944 -11.32537 39178 ft 484 kts 30°
2026-04-07 21:17 33.32453 -11.27857 39174 ft 488 kts 30°
2026-04-07 21:18 33.38007 -11.23133 39173 ft 491 kts 30°
2026-04-07 21:18 33.43576 -11.18387 39175 ft 491 kts 30°
2026-04-07 21:19 33.49148 -11.13632 39171 ft 493 kts 30°
2026-04-07 21:19 33.54738 -11.08856 39170 ft 494 kts 30°
2026-04-07 21:20 33.60331 -11.04068 39170 ft 494 kts 31°
2026-04-07 21:20 33.65918 -10.99278 39165 ft 494 kts 31°
2026-04-07 21:21 33.71505 -10.94480 39165 ft 494 kts 31°
2026-04-07 21:21 33.77116 -10.89657 39170 ft 499 kts 31°
2026-04-07 21:22 33.82748 -10.84807 39156 ft 502 kts 31°
2026-04-07 21:22 33.88427 -10.79905 39159 ft 502 kts 31°
2026-04-07 21:23 33.94104 -10.74995 39167 ft 502 kts 31°
2026-04-07 21:23 33.99777 -10.70082 39149 ft 502 kts 31°
2026-04-07 21:24 34.05460 -10.65154 39157 ft 505 kts 32°
2026-04-07 21:24 34.11183 -10.60184 39151 ft 507 kts 32°
2026-04-07 21:25 34.15983 -10.56007 39148 ft 508 kts 32°
2026-04-07 21:25 34.21685 -10.51037 39146 ft 510 kts 32°
2026-04-07 21:26 34.27442 -10.46011 39146 ft 511 kts 32°
2026-04-07 21:26 34.33207 -10.40969 39142 ft 513 kts 32°
2026-04-07 21:27 34.38998 -10.35897 39140 ft 514 kts 32°
2026-04-07 21:27 34.44788 -10.30815 39140 ft 514 kts 32°
2026-04-07 21:28 34.50577 -10.25725 39137 ft 514 kts 32°
2026-04-07 21:28 34.56365 -10.20627 39132 ft 514 kts 33°
2026-04-07 21:29 34.62173 -10.15506 39130 ft 518 kts 33°
2026-04-07 21:29 34.68019 -10.10366 39132 ft 519 kts 33°
2026-04-07 21:30 34.73873 -10.05219 39126 ft 519 kts 33°
2026-04-07 21:30 34.79728 -10.00062 39127 ft 519 kts 33°
2026-04-07 21:31 34.85577 -9.94899 39142 ft 520 kts 33°
2026-04-07 21:31 34.91439 -9.89716 39127 ft 521 kts 33°
2026-04-07 21:32 34.97309 -9.84515 39120 ft 522 kts 33°
2026-04-07 21:32 35.03178 -9.79305 39117 ft 523 kts 33°
2026-04-07 21:33 35.09060 -9.74074 39112 ft 523 kts 33°
2026-04-07 21:33 35.14899 -9.68872 39116 ft 524 kts 33°
2026-04-07 21:34 35.20792 -9.63613 39113 ft 525 kts 33°
2026-04-07 21:34 35.26692 -9.58337 39107 ft 525 kts 33°
2026-04-07 21:35 35.32590 -9.53054 39108 ft 525 kts 33°
2026-04-07 21:35 35.38485 -9.47763 39123 ft 525 kts 33°
2026-04-07 21:36 35.44381 -9.42462 39102 ft 526 kts 33°
2026-04-07 21:36 35.50280 -9.37149 39095 ft 526 kts 33°
2026-04-07 21:37 35.56180 -9.31824 39096 ft 526 kts 33°
2026-04-07 21:37 35.62077 -9.26493 39097 ft 526 kts 34°
2026-04-07 21:38 35.67970 -9.21154 39093 ft 526 kts 34°
2026-04-07 21:38 35.73859 -9.15810 39091 ft 526 kts 34°
2026-04-07 21:39 35.79751 -9.10453 39090 ft 526 kts 34°
2026-04-07 21:39 35.85640 -9.05088 39089 ft 527 kts 34°
2026-04-07 21:40 35.91533 -8.99710 39101 ft 527 kts 34°
2026-04-07 21:40 35.97200 -8.93970 39085 ft 529 kts 45°
2026-04-07 21:41 36.02162 -8.87247 39089 ft 530 kts 48°
2026-04-07 21:41 36.06973 -8.80343 39085 ft 530 kts 49°
2026-04-07 21:42 36.11757 -8.73403 39084 ft 530 kts 49°
2026-04-07 21:42 36.16547 -8.66470 39078 ft 530 kts 49°
2026-04-07 21:43 36.21344 -8.59539 39089 ft 529 kts 49°
2026-04-07 21:43 36.26097 -8.52664 39075 ft 528 kts 49°
2026-04-07 21:44 36.30873 -8.45742 39080 ft 528 kts 49°
2026-04-07 21:44 36.35646 -8.38809 39077 ft 528 kts 49°
2026-04-07 21:45 36.40413 -8.31870 39061 ft 528 kts 49°
2026-04-07 21:45 36.45170 -8.24930 39072 ft 527 kts 49°
2026-04-07 21:46 36.49910 -8.18001 39080 ft 525 kts 49°
2026-04-07 21:46 36.54626 -8.11092 39073 ft 523 kts 49°
2026-04-07 21:47 36.59335 -8.04177 39073 ft 524 kts 49°
2026-04-07 21:47 36.64037 -7.97256 39076 ft 524 kts 49°
2026-04-07 21:48 36.68739 -7.90323 39069 ft 524 kts 49°
2026-04-07 21:48 36.73436 -7.83382 39086 ft 524 kts 49°
2026-04-07 21:49 36.78119 -7.76447 39073 ft 522 kts 49°
2026-04-07 21:49 36.82779 -7.69533 39074 ft 520 kts 49°
2026-04-07 21:50 36.87438 -7.62607 39070 ft 521 kts 50°
2026-04-07 21:50 36.92085 -7.55682 39070 ft 519 kts 50°
2026-04-07 21:51 36.96682 -7.48817 39071 ft 517 kts 50°
2026-04-07 21:51 37.01292 -7.41920 39078 ft 517 kts 50°
2026-04-07 21:52 37.05896 -7.35038 39071 ft 514 kts 50°
2026-04-07 21:52 37.10496 -7.28199 39073 ft 513 kts 50°
2026-04-07 21:53 37.15095 -7.21361 39049 ft 513 kts 50°
2026-04-07 21:53 37.19681 -7.14520 39077 ft 512 kts 50°
2026-04-07 21:54 37.24257 -7.07678 39078 ft 512 kts 50°
2026-04-07 21:54 37.28827 -7.00830 39072 ft 511 kts 51°
2026-04-07 21:55 37.33384 -6.93986 39073 ft 511 kts 51°
2026-04-07 21:55 37.37937 -6.87134 39071 ft 511 kts 51°
2026-04-07 21:56 37.42488 -6.80270 39070 ft 511 kts 51°
2026-04-07 21:56 37.47034 -6.73400 39071 ft 511 kts 51°
2026-04-07 21:57 37.51579 -6.66516 39076 ft 511 kts 51°
2026-04-07 21:57 37.56120 -6.59627 39062 ft 510 kts 52°
2026-04-07 21:58 37.60648 -6.52741 39083 ft 510 kts 52°
2026-04-07 21:58 37.65173 -6.45844 39051 ft 510 kts 52°
2026-04-07 21:59 37.69686 -6.38953 39073 ft 508 kts 52°
2026-04-07 21:59 37.74182 -6.32073 39075 ft 508 kts 52°
2026-04-07 22:00 37.78672 -6.25190 39076 ft 508 kts 52°
2026-04-07 22:00 37.83155 -6.18300 39081 ft 506 kts 52°
2026-04-07 22:01 37.87616 -6.11427 39074 ft 505 kts 52°
2026-04-07 22:01 37.92069 -6.04556 39073 ft 504 kts 53°
2026-04-07 22:02 37.97167 -5.98469 39079 ft 506 kts 36°
2026-04-07 22:02 38.03019 -5.93478 39081 ft 507 kts 33°
2026-04-07 22:03 38.08997 -5.88710 39083 ft 508 kts 33°
2026-04-07 22:03 38.17945 -5.81596 39073 ft 508 kts 33°
2026-04-07 22:04 38.23917 -5.76793 39069 ft 508 kts 33°
2026-04-07 22:04 38.29886 -5.71970 39068 ft 508 kts 33°
2026-04-07 22:05 38.35846 -5.67145 39061 ft 506 kts 34°
2026-04-07 22:05 38.41779 -5.62336 39064 ft 505 kts 34°
2026-04-07 22:06 38.47705 -5.57521 39065 ft 505 kts 34°
2026-04-07 22:06 38.53635 -5.52692 39061 ft 505 kts 34°
2026-04-07 22:07 38.59577 -5.47845 39066 ft 508 kts 34°
2026-04-07 22:07 38.65553 -5.43001 39059 ft 509 kts 34°
2026-04-07 22:08 38.71534 -5.38169 39058 ft 509 kts 34°
2026-04-07 22:08 38.77515 -5.33327 39072 ft 508 kts 34°
2026-04-07 22:09 38.83498 -5.28469 39053 ft 510 kts 34°
2026-04-07 22:09 38.86479 -5.26044 38917 ft 510 kts 34°
2026-04-07 22:09 38.89492 -5.23589 38670 ft 509 kts 34°
2026-04-07 22:10 38.92482 -5.21149 38382 ft 509 kts 34°
2026-04-07 22:10 38.95431 -5.18741 38110 ft 510 kts 35°
2026-04-07 22:10 38.98266 -5.16033 37844 ft 507 kts 44°
2026-04-07 22:10 39.00720 -5.12822 37560 ft 502 kts 54°
2026-04-07 22:11 39.02746 -5.09204 37253 ft 496 kts 61°
2026-04-07 22:11 39.04602 -5.05474 36679 ft 495 kts 62°
2026-04-07 22:11 39.06421 -5.01708 35998 ft 496 kts 63°
2026-04-07 22:11 39.08241 -4.97917 35243 ft 499 kts 63°
2026-04-07 22:12 39.10068 -4.94103 34409 ft 503 kts 62°
2026-04-07 22:12 39.11914 -4.90250 33511 ft 507 kts 62°
2026-04-07 22:12 39.13773 -4.86367 32565 ft 511 kts 62°
2026-04-07 22:12 39.15640 -4.82462 31636 ft 514 kts 62°
2026-04-07 22:13 39.17519 -4.78527 30707 ft 516 kts 62°
2026-04-07 22:13 39.19521 -4.74703 30097 ft 516 kts 54°
2026-04-07 22:13 39.21098 -4.72408 29622 ft 515 kts 50°
2026-04-07 22:13 39.23593 -4.69124 28938 ft 511 kts 48°
2026-04-07 22:14 39.26102 -4.65902 28288 ft 506 kts 48°
2026-04-07 22:14 39.28583 -4.62715 27632 ft 501 kts 48°
2026-04-07 22:14 39.31036 -4.59552 26968 ft 497 kts 49°
2026-04-07 22:14 39.33467 -4.56407 26277 ft 493 kts 48°
2026-04-07 22:15 39.35873 -4.53287 25646 ft 488 kts 48°
2026-04-07 22:15 39.38252 -4.50196 24980 ft 485 kts 48°
2026-04-07 22:15 39.40629 -4.47105 24316 ft 482 kts 48°
2026-04-07 22:15 39.42984 -4.44038 23718 ft 478 kts 48°
2026-04-07 22:16 39.45312 -4.41002 23030 ft 474 kts 48°
2026-04-07 22:16 39.47618 -4.37994 22357 ft 469 kts 48°
2026-04-07 22:16 39.49899 -4.35015 21696 ft 464 kts 48°
2026-04-07 22:16 39.52151 -4.32073 21141 ft 457 kts 49°
2026-04-07 22:17 39.54377 -4.29158 20487 ft 453 kts 48°
2026-04-07 22:17 39.56577 -4.26277 19949 ft 446 kts 49°
2026-04-07 22:17 39.58739 -4.23442 19436 ft 439 kts 49°
2026-04-07 22:17 39.60865 -4.20650 18933 ft 432 kts 49°
2026-04-07 22:18 39.62960 -4.17897 18437 ft 426 kts 49°
2026-04-07 22:18 39.65026 -4.15181 17892 ft 419 kts 49°
2026-04-07 22:18 39.67056 -4.12509 17419 ft 412 kts 49°
2026-04-07 22:18 39.69051 -4.09881 16946 ft 406 kts 49°
2026-04-07 22:19 39.71027 -4.07273 16483 ft 404 kts 49°
2026-04-07 22:19 39.72992 -4.04679 16014 ft 402 kts 49°
2026-04-07 22:19 39.74950 -4.02092 15552 ft 400 kts 49°
2026-04-07 22:19 39.76898 -3.99515 15076 ft 399 kts 49°
2026-04-07 22:20 39.78837 -3.96950 14634 ft 397 kts 49°
2026-04-07 22:20 39.80764 -3.94399 14173 ft 395 kts 49°
2026-04-07 22:20 39.82657 -3.91890 13747 ft 393 kts 48°
2026-04-07 22:20 39.84567 -3.89357 13331 ft 391 kts 48°
2026-04-07 22:21 39.86460 -3.86843 12948 ft 388 kts 48°
2026-04-07 22:21 39.88342 -3.84344 12504 ft 385 kts 48°
2026-04-07 22:21 39.90208 -3.81862 12065 ft 381 kts 48°
2026-04-07 22:21 39.92053 -3.79407 11719 ft 376 kts 48°
2026-04-07 22:22 39.93851 -3.77014 11491 ft 363 kts 48°
2026-04-07 22:22 39.95589 -3.74698 11173 ft 354 kts 48°
2026-04-07 22:22 39.97290 -3.72427 10831 ft 347 kts 48°
2026-04-07 22:22 39.98961 -3.70195 10471 ft 340 kts 47°
2026-04-07 22:23 40.00600 -3.68004 10127 ft 334 kts 47°
2026-04-07 22:23 40.02200 -3.65865 9951 ft 324 kts 47°
2026-04-07 22:23 40.03745 -3.63799 9744 ft 314 kts 47°
2026-04-07 22:23 40.05264 -3.61758 9319 ft 313 kts 48°
2026-04-07 22:24 40.06776 -3.59718 8904 ft 312 kts 48°
2026-04-07 22:24 40.08278 -3.57694 8529 ft 309 kts 48°
2026-04-07 22:24 40.09773 -3.55680 8141 ft 308 kts 49°
2026-04-07 22:24 40.11253 -3.53679 7737 ft 306 kts 49°
2026-04-07 22:25 40.12725 -3.51691 7416 ft 302 kts 49°
2026-04-07 22:25 40.14180 -3.49731 7118 ft 299 kts 49°
2026-04-07 22:25 40.15629 -3.47779 6814 ft 298 kts 48°
2026-04-07 22:25 40.17083 -3.45853 6514 ft 297 kts 47°
2026-04-07 22:26 40.18573 -3.43995 6243 ft 294 kts 46°
2026-04-07 22:26 40.20064 -3.42238 6084 ft 284 kts 41°
2026-04-07 22:26 40.21677 -3.40844 6038 ft 271 kts 36°
2026-04-07 22:26 40.23245 -3.39596 6050 ft 257 kts 33°
2026-04-07 22:27 40.24856 -3.38732 6051 ft 245 kts 15°
2026-04-07 22:27 40.26495 -3.38524 6046 ft 229 kts
2026-04-07 22:27 40.28060 -3.38603 6053 ft 223 kts 355°
2026-04-07 22:27 40.29575 -3.38955 6035 ft 220 kts 342°
2026-04-07 22:28 40.30941 -3.39744 5852 ft 216 kts 325°
2026-04-07 22:28 40.32134 -3.40932 5538 ft 216 kts 317°
2026-04-07 22:28 40.33299 -3.42178 5215 ft 217 kts 319°
2026-04-07 22:28 40.34500 -3.43385 4912 ft 217 kts 320°
2026-04-07 22:29 40.35699 -3.44596 4618 ft 217 kts 320°
2026-04-07 22:29 40.36893 -3.45811 4336 ft 217 kts 321°
2026-04-07 22:29 40.38077 -3.47013 4022 ft 212 kts 322°
2026-04-07 22:29 40.39215 -3.48168 3771 ft 201 kts 323°
2026-04-07 22:30 40.40289 -3.49260 3517 ft 189 kts 323°
2026-04-07 22:30 40.41288 -3.50276 3268 ft 175 kts 323°
2026-04-07 22:30 40.42219 -3.51225 3014 ft 164 kts 323°
2026-04-07 22:30 40.43077 -3.52114 2800 ft 151 kts 323°
2026-04-07 22:31 40.43877 -3.52936 2543 ft 142 kts 324°
2026-04-07 22:31 40.44649 -3.53689 2382 ft 137 kts 325°
2026-04-07 22:31 40.45396 -3.54455 2209 ft 137 kts 322°
2026-04-07 22:31 40.46147 -3.55214 2016 ft 135 kts 324°
2026-04-07 22:32 40.46873 -3.55952 1978 ft 121 kts 322°
2026-04-07 22:32 40.47385 -3.56477 1997 ft 65 kts 323°
2026-04-07 22:32 40.47611 -3.56708 2000 ft 29 kts 323°
2026-04-07 22:32 40.47797 -3.56815 1999 ft 29 kts 343°
2026-04-07 22:33 40.47989 -3.56885 1999 ft 28 kts 342°
2026-04-07 22:33 40.48166 -3.56952 2006 ft 24 kts 344°
2026-04-07 22:33 40.48331 -3.56996 2006 ft 24 kts 357°
2026-04-07 22:33 40.48507 -3.56998 1999 ft 28 kts 359°
2026-04-07 22:34 40.48687 -3.56998 1991 ft 22 kts 359°
2026-04-07 22:34 40.48827 -3.56999 1986 ft 10 kts
2026-04-07 22:34 40.48859 -3.56925 1982 ft 11 kts 85°
2026-04-07 22:34 40.48857 -3.56810 1979 ft 13 kts 90°
2026-04-07 22:35 40.48864 -3.56679 1977 ft 16 kts 91°
2026-04-07 22:35 40.48862 -3.56516 1974 ft 20 kts 91°
2026-04-07 22:35 40.48861 -3.56351 1968 ft 10 kts 89°
2026-04-07 22:35 40.48880 -3.56258 1966 ft 10 kts 32°
2026-04-07 22:36 40.48950 -3.56243 1965 ft 11 kts 360°
2026-04-07 22:36 40.49032 -3.56244 1965 ft 12 kts 359°
2026-04-07 22:36 40.49122 -3.56245 1965 ft 14 kts
2026-04-07 22:36 40.49222 -3.56245 1965 ft 15 kts 360°
2026-04-07 22:37 40.49330 -3.56246 1965 ft 16 kts 360°
2026-04-07 22:37 40.49445 -3.56247 1965 ft 17 kts 359°
2026-04-07 22:37 40.49568 -3.56247 1965 ft 18 kts
2026-04-07 22:37 40.49689 -3.56249 1965 ft 18 kts 360°
2026-04-07 22:38 40.49758 -3.56256 1965 ft 4 kts 330°
2026-04-07 22:38 40.49766 -3.56283 1966 ft 4 kts 277°
2026-04-07 22:38 40.49767 -3.56325 1967 ft 4 kts 271°
2026-04-07 22:38 40.49767 -3.56358 1968 ft 1 kts 270°
2026-04-07 22:39 40.49767 -3.56363 1968 ft 0 kts 270°